| time (UTC) | temp F | wind direction | speed MPH | gust MPH | rain 1hr in | rain 24hr in | rain mn in | humidity % | barometer mb |
| 20260504213904 | 69 | 64 | 2.0 | 4.0 | 0.00 | 0.00 | 0.00 | 68 | 1005.4 |
| 20260504213804 | 69 | 64 | 2.0 | 4.0 | 0.00 | 0.00 | 0.00 | 67 | 1005.4 |
| 20260504213704 | 69 | 63 | 1.0 | 2.0 | 0.00 | 0.00 | 0.00 | 67 | 1005.4 |
| 20260504213603 | 69 | 66 | 2.0 | 2.0 | 0.00 | 0.00 | 0.00 | 67 | 1005.3 |
| 20260504213505 | 69 | 61 | 1.0 | 2.0 | 0.00 | 0.00 | 0.00 | 67 | 1005.5 |
| 20260504213403 | 69 | 53 | 0.0 | 2.0 | 0.00 | 0.00 | 0.00 | 66 | 1005.6 |
| 20260504213318 | 69 | 46 | 0.0 | 2.0 | 0.00 | 0.00 | 0.00 | 66 | 1005.6 |
| 20260504213204 | 69 | 37 | 1.0 | 2.0 | 0.00 | 0.00 | 0.00 | 66 | 1005.4 |
| 20260504213004 | 69 | 30 | 1.0 | 2.0 | 0.00 | 0.00 | 0.00 | 66 | 1005.4 |
| 20260504212904 | 69 | 30 | 0.0 | 2.0 | 0.00 | 0.00 | 0.00 | 66 | 1005.4 |
| 20260504212804 | 69 | 33 | 1.0 | 2.0 | 0.00 | 0.00 | 0.00 | 65 | 1005.6 |
| 20260504212707 | 69 | 34 | 1.0 | 2.0 | 0.00 | 0.00 | 0.00 | 65 | 1005.5 |
| 20260504212605 | 70 | 37 | 1.0 | 2.0 | 0.00 | 0.00 | 0.00 | 65 | 1005.6 |
| 20260504212516 | 70 | 35 | 0.0 | 2.0 | 0.00 | 0.00 | 0.00 | 65 | 1005.4 |
| 20260504212503 | 70 | 36 | 0.0 | 2.0 | 0.00 | 0.00 | 0.00 | 65 | 1005.4 |
| 20260504212415 | 70 | 41 | 1.0 | 2.0 | 0.00 | 0.00 | 0.00 | 64 | 1005.7 |
| 20260504212404 | 70 | 43 | 1.0 | 2.0 | 0.00 | 0.00 | 0.00 | 64 | 1005.7 |
| 20260504212110 | 70 | 45 | 0.0 | 2.0 | 0.00 | 0.00 | 0.00 | 64 | 1005.7 |
| 20260504212003 | 71 | 45 | 0.0 | 2.0 | 0.00 | 0.00 | 0.00 | 63 | 1005.8 |
| 20260504211918 | 71 | 45 | 0.0 | 2.0 | 0.00 | 0.00 | 0.00 | 63 | 1005.4 |
| 20260504211803 | 71 | 46 | 0.0 | 2.0 | 0.00 | 0.00 | 0.00 | 63 | 1005.5 |
| 20260504211605 | 71 | 57 | 0.0 | 2.0 | 0.00 | 0.00 | 0.00 | 63 | 1005.6 |
| 20260504211504 | 71 | 62 | 0.0 | 2.0 | 0.00 | 0.00 | 0.00 | 62 | 1005.8 |
| 20260504211405 | 71 | 67 | 0.0 | 2.0 | 0.00 | 0.00 | 0.00 | 62 | 1005.7 |
| 20260504211305 | 71 | 67 | 0.0 | 2.0 | 0.00 | 0.00 | 0.00 | 62 | 1005.6 |
| 20260504211203 | 71 | 67 | 0.0 | 2.0 | 0.00 | 0.00 | 0.00 | 62 | 1005.7 |
| 20260504211005 | 72 | 61 | 0.0 | 2.0 | 0.00 | 0.00 | 0.00 | 61 | 1005.4 |
| 20260504210903 | 72 | 55 | 1.0 | 2.0 | 0.00 | 0.00 | 0.00 | 61 | 1005.7 |
| 20260504210818 | 72 | 53 | 0.0 | 2.0 | 0.00 | 0.00 | 0.00 | 60 | 1005.7 |
| 20260504210805 | 72 | 52 | 0.0 | 2.0 | 0.00 | 0.00 | 0.00 | 60 | 1005.7 |
| 20260504210703 | 72 | 47 | 0.0 | 2.0 | 0.00 | 0.00 | 0.00 | 60 | 1005.8 |
| 20260504210503 | 73 | 39 | 0.0 | 2.0 | 0.00 | 0.00 | 0.00 | 59 | 1005.9 |
| 20260504210406 | 73 | 45 | 0.0 | 2.0 | 0.00 | 0.00 | 0.00 | 59 | 1005.7 |
| 20260504210303 | 73 | 50 | 0.0 | 2.0 | 0.00 | 0.00 | 0.00 | 59 | 1005.7 |
| 20260504210203 | 73 | 53 | 0.0 | 2.0 | 0.00 | 0.00 | 0.00 | 59 | 1005.8 |
| 20260504210118 | 73 | 54 | 0.0 | 2.0 | 0.00 | 0.00 | 0.00 | 59 | 1005.4 |
| 20260504210004 | 73 | 57 | 0.0 | 2.0 | 0.00 | 0.00 | 0.00 | 59 | 1005.8 |
| 20260504205804 | 73 | 45 | 1.0 | 4.0 | 0.00 | 0.00 | 0.00 | 58 | 1005.8 |
| 20260504205705 | 73 | 48 | 1.0 | 4.0 | 0.00 | 0.00 | 0.00 | 58 | 1005.7 |
| 20260504205604 | 73 | 45 | 0.0 | 4.0 | 0.00 | 0.00 | 0.00 | 57 | 1005.8 |
| 20260504205519 | 73 | 44 | 0.0 | 4.0 | 0.00 | 0.00 | 0.00 | 57 | 1005.6 |
| 20260504205404 | 73 | 44 | 2.0 | 4.0 | 0.00 | 0.00 | 0.00 | 56 | 1005.7 |
| 20260504205203 | 74 | 45 | 0.0 | 2.0 | 0.00 | 0.00 | 0.00 | 56 | 1005.8 |
| 20260504205105 | 74 | 52 | 0.0 | 2.0 | 0.00 | 0.00 | 0.00 | 56 | 1005.6 |
| 20260504205005 | 74 | 45 | 0.0 | 2.0 | 0.00 | 0.00 | 0.00 | 56 | 1005.6 |
| 20260504204904 | 74 | 45 | 0.0 | 2.0 | 0.00 | 0.00 | 0.00 | 57 | 1005.8 |
| 20260504204804 | 74 | 50 | 1.0 | 2.0 | 0.00 | 0.00 | 0.00 | 56 | 1005.7 |
| 20260504204605 | 74 | 51 | 0.0 | 4.0 | 0.00 | 0.00 | 0.00 | 56 | 1005.8 |
| 20260504204504 | 74 | 60 | 0.0 | 4.0 | 0.00 | 0.00 | 0.00 | 56 | 1005.6 |
| 20260504204404 | 74 | 53 | 0.0 | 4.0 | 0.00 | 0.00 | 0.00 | 57 | 1005.7 |
| 20260504204305 | 74 | 47 | 0.0 | 4.0 | 0.00 | 0.00 | 0.00 | 57 | 1005.8 |
| 20260504204216 | 74 | 42 | 0.0 | 4.0 | 0.00 | 0.00 | 0.00 | 57 | 1005.6 |
| 20260504204204 | 74 | 44 | 0.0 | 4.0 | 0.00 | 0.00 | 0.00 | 58 | 1005.7 |
| 20260504204104 | 73 | 43 | 2.0 | 4.0 | 0.00 | 0.00 | 0.00 | 58 | 1005.8 |
| 20260504204018 | 73 | 37 | 1.0 | 4.0 | 0.00 | 0.00 | 0.00 | 57 | 1005.6 |
| 20260504203904 | 74 | 37 | 0.0 | 4.0 | 0.00 | 0.00 | 0.00 | 57 | 1005.5 |
| 20260504203815 | 74 | 41 | 0.0 | 4.0 | 0.00 | 0.00 | 0.00 | 57 | 1005.5 |
| 20260504203704 | 73 | 38 | 2.0 | 6.0 | 0.00 | 0.00 | 0.00 | 57 | 1005.5 |
| 20260504203504 | 74 | 48 | 1.0 | 6.0 | 0.00 | 0.00 | 0.00 | 56 | 1005.6 |
| 20260504203404 | 74 | 50 | 1.0 | 6.0 | 0.00 | 0.00 | 0.00 | 57 | 1005.4 |
| 20260504203304 | 73 | 47 | 2.0 | 6.0 | 0.00 | 0.00 | 0.00 | 57 | 1005.5 |
| 20260504203203 | 73 | 42 | 2.0 | 6.0 | 0.00 | 0.00 | 0.00 | 56 | 1005.7 |
| 20260504203107 | 74 | 31 | 1.0 | 4.0 | 0.00 | 0.00 | 0.00 | 56 | 1005.6 |
| 20260504203003 | 74 | 28 | 0.0 | 4.0 | 0.00 | 0.00 | 0.00 | 56 | 1005.6 |
| 20260504202903 | 74 | 27 | 1.0 | 6.0 | 0.00 | 0.00 | 0.00 | 56 | 1005.5 |
| 20260504202805 | 74 | 34 | 2.0 | 6.0 | 0.00 | 0.00 | 0.00 | 56 | 1005.5 |
| 20260504202703 | 74 | 35 | 2.0 | 6.0 | 0.00 | 0.00 | 0.00 | 55 | 1005.8 |
| 20260504202605 | 74 | 39 | 1.0 | 6.0 | 0.00 | 0.00 | 0.00 | 56 | 1005.6 |
| 20260504202504 | 74 | 33 | 0.0 | 6.0 | 0.00 | 0.00 | 0.00 | 56 | 1005.3 |
| 20260504202304 | 74 | 29 | 1.0 | 4.0 | 0.00 | 0.00 | 0.00 | 56 | 1005.7 |
| 20260504202204 | 74 | 21 | 1.0 | 7.0 | 0.00 | 0.00 | 0.00 | 56 | 1005.4 |
| 20260504202003 | 73 | 16 | 1.0 | 7.0 | 0.00 | 0.00 | 0.00 | 57 | 1005.4 |
| 20260504201903 | 73 | 9 | 2.0 | 7.0 | 0.00 | 0.00 | 0.00 | 57 | 1005.4 |
| 20260504201803 | 73 | 2 | 4.0 | 7.0 | 0.00 | 0.00 | 0.00 | 56 | 1005.5 |
| 20260504201703 | 74 | 11 | 3.0 | 7.0 | 0.00 | 0.00 | 0.00 | 56 | 1005.7 |
| 20260504201603 | 74 | 12 | 2.0 | 7.0 | 0.00 | 0.00 | 0.00 | 56 | 1005.6 |
| 20260504201503 | 74 | 360 | 2.0 | 7.0 | 0.00 | 0.00 | 0.00 | 55 | 1005.4 |
| 20260504201403 | 74 | 360 | 2.0 | 7.0 | 0.00 | 0.00 | 0.00 | 55 | 1005.6 |
| 20260504201303 | 73 | 10 | 2.0 | 7.0 | 0.00 | 0.00 | 0.00 | 55 | 1005.6 |
| 20260504201204 | 73 | 3 | 4.0 | 7.0 | 0.00 | 0.00 | 0.00 | 55 | 1005.6 |
| 20260504201104 | 74 | 6 | 4.0 | 7.0 | 0.00 | 0.00 | 0.00 | 55 | 1005.7 |
| 20260504201003 | 74 | 14 | 1.0 | 4.0 | 0.00 | 0.00 | 0.00 | 55 | 1005.6 |
| 20260504200915 | 74 | 14 | 2.0 | 4.0 | 0.00 | 0.00 | 0.00 | 54 | 1005.6 |
| 20260504200805 | 74 | 354 | 1.0 | 7.0 | 0.00 | 0.00 | 0.00 | 55 | 1005.5 |
| 20260504200717 | 74 | 354 | 1.0 | 7.0 | 0.00 | 0.00 | 0.00 | 55 | 1005.6 |
| 20260504200604 | 74 | 347 | 2.0 | 7.0 | 0.00 | 0.00 | 0.00 | 56 | 1005.5 |
| 20260504200404 | 73 | 347 | 3.0 | 7.0 | 0.00 | 0.00 | 0.00 | 57 | 1005.6 |
| 20260504200304 | 73 | 352 | 4.0 | 7.0 | 0.00 | 0.00 | 0.00 | 57 | 1005.6 |
| 20260504200215 | 73 | 348 | 4.0 | 6.0 | 0.00 | 0.00 | 0.00 | 56 | 1005.6 |
| 20260504200210 | 74 | 345 | 2.0 | 4.0 | 0.00 | 0.00 | 0.00 | 56 | 1005.7 |
| 20260504195904 | 74 | 335 | 2.0 | 7.0 | 0.00 | 0.00 | 0.00 | 55 | 1005.5 |
| 20260504195814 | 74 | 333 | 2.0 | 7.0 | 0.00 | 0.00 | 0.00 | 56 | 1005.7 |
| 20260504195805 | 74 | 331 | 3.0 | 7.0 | 0.00 | 0.00 | 0.00 | 55 | 1005.7 |
| 20260504195704 | 74 | 328 | 2.0 | 7.0 | 0.00 | 0.00 | 0.00 | 55 | 1005.7 |
| 20260504195505 | 74 | 330 | 3.0 | 7.0 | 0.00 | 0.00 | 0.00 | 54 | 1005.6 |
| 20260504195405 | 74 | 323 | 1.0 | 6.0 | 0.00 | 0.00 | 0.00 | 55 | 1005.6 |
| 20260504195304 | 74 | 321 | 1.0 | 6.0 | 0.00 | 0.00 | 0.00 | 54 | 1005.6 |
| 20260504195204 | 74 | 329 | 0.0 | 6.0 | 0.00 | 0.00 | 0.00 | 55 | 1005.7 |
| 20260504195103 | 74 | 329 | 2.0 | 6.0 | 0.00 | 0.00 | 0.00 | 55 | 1005.8 |
| 20260504195004 | 74 | 327 | 2.0 | 4.0 | 0.00 | 0.00 | 0.00 | 55 | 1005.8 |
| 20260504194903 | 74 | 349 | 3.0 | 4.0 | 0.00 | 0.00 | 0.00 | 55 | 1005.8 |
| 20260504194804 | 75 | 344 | 2.0 | 6.0 | 0.00 | 0.00 | 0.00 | 54 | 1005.7 |
| 20260504194703 | 74 | 337 | 1.0 | 7.0 | 0.00 | 0.00 | 0.00 | 54 | 1005.7 |
| 20260504194603 | 74 | 339 | 1.0 | 7.0 | 0.00 | 0.00 | 0.00 | 55 | 1005.9 |
| 20260504194503 | 74 | 344 | 1.0 | 7.0 | 0.00 | 0.00 | 0.00 | 55 | 1005.9 |
| 20260504194404 | 73 | 346 | 2.0 | 7.0 | 0.00 | 0.00 | 0.00 | 56 | 1005.8 |
| 20260504194303 | 73 | 354 | 3.0 | 7.0 | 0.00 | 0.00 | 0.00 | 56 | 1006.0 |
| 20260504194217 | 73 | 3 | 4.0 | 7.0 | 0.00 | 0.00 | 0.00 | 56 | 1005.7 |
| 20260504194203 | 73 | 5 | 4.0 | 7.0 | 0.00 | 0.00 | 0.00 | 56 | 1005.8 |
| 20260504194103 | 73 | 7 | 3.0 | 7.0 | 0.00 | 0.00 | 0.00 | 55 | 1005.9 |
| 20260504193907 | 73 | 343 | 3.0 | 7.0 | 0.00 | 0.00 | 0.00 | 55 | 1005.9 |
| 20260504193804 | 73 | 341 | 4.0 | 7.0 | 0.00 | 0.00 | 0.00 | 55 | 1005.6 |
| 20260504193703 | 74 | 332 | 3.0 | 7.0 | 0.00 | 0.00 | 0.00 | 54 | 1005.9 |
| 20260504193618 | 73 | 330 | 4.0 | 7.0 | 0.00 | 0.00 | 0.00 | 55 | 1005.8 |
| 20260504193603 | 73 | 333 | 4.0 | 7.0 | 0.00 | 0.00 | 0.00 | 55 | 1005.8 |
| 20260504193504 | 73 | 342 | 4.0 | 7.0 | 0.00 | 0.00 | 0.00 | 55 | 1005.9 |
| 20260504193415 | 73 | 351 | 3.0 | 6.0 | 0.00 | 0.00 | 0.00 | 55 | 1005.9 |
| 20260504193307 | 74 | 350 | 4.0 | 6.0 | 0.00 | 0.00 | 0.00 | 54 | 1005.9 |
| 20260504193103 | 74 | 6 | 2.0 | 4.0 | 0.00 | 0.00 | 0.00 | 53 | 1005.8 |
| 20260504193003 | 74 | 6 | 2.0 | 4.0 | 0.00 | 0.00 | 0.00 | 52 | 1005.8 |
| 20260504192905 | 75 | 13 | 1.0 | 4.0 | 0.00 | 0.00 | 0.00 | 52 | 1005.9 |
| 20260504192817 | 75 | 20 | 2.0 | 4.0 | 0.00 | 0.00 | 0.00 | 52 | 1006.1 |
| 20260504192803 | 75 | 22 | 2.0 | 4.0 | 0.00 | 0.00 | 0.00 | 52 | 1006.1 |
| 20260504192703 | 75 | 22 | 2.0 | 4.0 | 0.00 | 0.00 | 0.00 | 52 | 1005.9 |
| 20260504192619 | 75 | 19 | 1.0 | 4.0 | 0.00 | 0.00 | 0.00 | 51 | 1006.1 |
| 20260504192503 | 75 | 348 | 0.0 | 8.0 | 0.00 | 0.00 | 0.00 | 52 | 1006.1 |
| 20260504192305 | 74 | 324 | 2.0 | 8.0 | 0.00 | 0.00 | 0.00 | 53 | 1005.9 |
| 20260504192203 | 73 | 325 | 2.0 | 8.0 | 0.00 | 0.00 | 0.00 | 52 | 1006.0 |
| 20260504192104 | 73 | 326 | 2.0 | 8.0 | 0.00 | 0.00 | 0.00 | 52 | 1006.1 |
| 20260504191905 | 74 | 348 | 2.0 | 7.0 | 0.00 | 0.00 | 0.00 | 52 | 1006.0 |
| 20260504191805 | 73 | 356 | 2.0 | 7.0 | 0.00 | 0.00 | 0.00 | 52 | 1006.0 |
| 20260504191606 | 73 | 10 | 4.0 | 7.0 | 0.00 | 0.00 | 0.00 | 52 | 1006.1 |
| 20260504191506 | 73 | 12 | 5.0 | 7.0 | 0.00 | 0.00 | 0.00 | 52 | 1006.0 |
| 20260504191405 | 74 | 14 | 3.0 | 7.0 | 0.00 | 0.00 | 0.00 | 51 | 1005.9 |
| 20260504191305 | 74 | 24 | 2.0 | 7.0 | 0.00 | 0.00 | 0.00 | 50 | 1006.1 |
| 20260504191214 | 74 | 25 | 2.0 | 7.0 | 0.00 | 0.00 | 0.00 | 50 | 1006.1 |
| 20260504191204 | 74 | 23 | 2.0 | 7.0 | 0.00 | 0.00 | 0.00 | 50 | 1006.1 |
| 20260504191103 | 74 | 21 | 3.0 | 7.0 | 0.00 | 0.00 | 0.00 | 51 | 1006.2 |
| 20260504191017 | 74 | 28 | 4.0 | 7.0 | 0.00 | 0.00 | 0.00 | 51 | 1006.1 |
| 20260504190705 | 75 | 14 | 2.0 | 7.0 | 0.00 | 0.00 | 0.00 | 49 | 1005.9 |
| 20260504190612 | 74 | 5 | 2.0 | 7.0 | 0.00 | 0.00 | 0.00 | 50 | 1006.3 |
| 20260504190504 | 74 | 353 | 2.0 | 7.0 | 0.00 | 0.00 | 0.00 | 52 | 1006.2 |
| 20260504190403 | 73 | 352 | 2.0 | 7.0 | 0.00 | 0.00 | 0.00 | 52 | 1006.1 |
| 20260504190304 | 73 | 355 | 3.0 | 7.0 | 0.00 | 0.00 | 0.00 | 52 | 1006.0 |
| 20260504190205 | 73 | 356 | 3.0 | 7.0 | 0.00 | 0.00 | 0.00 | 51 | 1006.1 |
| 20260504190104 | 74 | 353 | 3.0 | 7.0 | 0.00 | 0.00 | 0.00 | 50 | 1006.1 |
| 20260504190004 | 74 | 350 | 0.0 | 7.0 | 0.00 | 0.00 | 0.00 | 51 | 1006.1 |
| 20260504185903 | 73 | 339 | 2.0 | 7.0 | 0.00 | 0.00 | 0.00 | 52 | 1006.2 |
| 20260504185815 | 73 | 344 | 4.0 | 8.0 | 0.00 | 0.00 | 0.00 | 52 | 1006.2 |
| 20260504185804 | 73 | 343 | 3.0 | 8.0 | 0.00 | 0.00 | 0.00 | 52 | 1006.1 |
| 20260504185705 | 73 | 347 | 2.0 | 8.0 | 0.00 | 0.00 | 0.00 | 52 | 1006.2 |
| 20260504185503 | 73 | 348 | 4.0 | 8.0 | 0.00 | 0.00 | 0.00 | 53 | 1006.2 |
| 20260504185404 | 73 | 2 | 4.0 | 8.0 | 0.00 | 0.00 | 0.00 | 53 | 1006.3 |
| 20260504185204 | 72 | 5 | 4.0 | 9.0 | 0.00 | 0.00 | 0.00 | 53 | 1006.1 |
| 20260504185103 | 73 | 4 | 4.0 | 9.0 | 0.00 | 0.00 | 0.00 | 54 | 1006.1 |
| 20260504185004 | 72 | 10 | 6.0 | 9.0 | 0.00 | 0.00 | 0.00 | 54 | 1006.2 |
| 20260504184903 | 73 | 355 | 4.0 | 9.0 | 0.00 | 0.00 | 0.00 | 53 | 1006.2 |
| 20260504184805 | 73 | 337 | 4.0 | 9.0 | 0.00 | 0.00 | 0.00 | 53 | 1006.1 |
| 20260504184705 | 74 | 337 | 2.0 | 7.0 | 0.00 | 0.00 | 0.00 | 53 | 1006.3 |
| 20260504184603 | 72 | 339 | 3.0 | 7.0 | 0.00 | 0.00 | 0.00 | 54 | 1006.3 |
| 20260504184503 | 72 | 338 | 5.0 | 7.0 | 0.00 | 0.00 | 0.00 | 54 | 1006.2 |
| 20260504184405 | 73 | 350 | 4.0 | 7.0 | 0.00 | 0.00 | 0.00 | 53 | 1006.3 |
| 20260504184304 | 73 | 7 | 5.0 | 7.0 | 0.00 | 0.00 | 0.00 | 53 | 1006.2 |
| 20260504184204 | 74 | 6 | 4.0 | 6.0 | 0.00 | 0.00 | 0.00 | 51 | 1006.2 |
| 20260504184116 | 75 | 8 | 2.0 | 4.0 | 0.00 | 0.00 | 0.00 | 51 | 1006.1 |
| 20260504184105 | 75 | 3 | 2.0 | 4.0 | 0.00 | 0.00 | 0.00 | 51 | 1006.1 |
| 20260504184003 | 74 | 349 | 1.0 | 6.0 | 0.00 | 0.00 | 0.00 | 53 | 1006.0 |
| 20260504183803 | 73 | 336 | 3.0 | 8.0 | 0.00 | 0.00 | 0.00 | 53 | 1006.4 |
| 20260504183704 | 73 | 336 | 3.0 | 8.0 | 0.00 | 0.00 | 0.00 | 53 | 1006.2 |
| 20260504183603 | 74 | 336 | 2.0 | 8.0 | 0.00 | 0.00 | 0.00 | 52 | 1006.3 |
| 20260504183505 | 72 | 332 | 3.0 | 8.0 | 0.00 | 0.00 | 0.00 | 53 | 1006.3 |
| 20260504183405 | 72 | 335 | 6.0 | 8.0 | 0.00 | 0.00 | 0.00 | 53 | 1006.4 |
| 20260504183305 | 73 | 345 | 5.0 | 8.0 | 0.00 | 0.00 | 0.00 | 53 | 1006.2 |
| 20260504183203 | 73 | 349 | 4.0 | 8.0 | 0.00 | 0.00 | 0.00 | 53 | 1006.3 |
| 20260504183104 | 73 | 354 | 5.0 | 8.0 | 0.00 | 0.00 | 0.00 | 52 | 1006.2 |
| 20260504183004 | 73 | 23 | 3.0 | 7.0 | 0.00 | 0.00 | 0.00 | 52 | 1006.3 |
| 20260504182803 | 74 | 25 | 2.0 | 7.0 | 0.00 | 0.00 | 0.00 | 52 | 1006.4 |
| 20260504182703 | 74 | 16 | 2.0 | 7.0 | 0.00 | 0.00 | 0.00 | 53 | 1006.3 |
| 20260504182603 | 73 | 22 | 3.0 | 7.0 | 0.00 | 0.00 | 0.00 | 53 | 1006.5 |
| 20260504182503 | 72 | 19 | 4.0 | 7.0 | 0.00 | 0.00 | 0.00 | 53 | 1006.5 |
| 20260504182405 | 73 | 20 | 4.0 | 6.0 | 0.00 | 0.00 | 0.00 | 52 | 1006.6 |
| 20260504182304 | 73 | 20 | 2.0 | 6.0 | 0.00 | 0.00 | 0.00 | 52 | 1006.3 |
| 20260504182206 | 74 | 41 | 1.0 | 6.0 | 0.00 | 0.00 | 0.00 | 53 | 1006.3 |
| 20260504182103 | 74 | 38 | 1.0 | 6.0 | 0.00 | 0.00 | 0.00 | 53 | 1006.3 |
| 20260504182005 | 73 | 28 | 3.0 | 6.0 | 0.00 | 0.00 | 0.00 | 53 | 1006.3 |
| 20260504181904 | 73 | 15 | 3.0 | 6.0 | 0.00 | 0.00 | 0.00 | 53 | 1006.3 |
| 20260504181804 | 73 | 17 | 3.0 | 6.0 | 0.00 | 0.00 | 0.00 | 53 | 1006.4 |
| 20260504181703 | 73 | 11 | 1.0 | 6.0 | 0.00 | 0.00 | 0.00 | 53 | 1006.6 |
| 20260504181503 | 73 | 4 | 2.0 | 6.0 | 0.00 | 0.00 | 0.00 | 52 | 1006.5 |
| 20260504181404 | 73 | 7 | 4.0 | 6.0 | 0.00 | 0.00 | 0.00 | 53 | 1006.7 |
| 20260504181305 | 73 | 8 | 2.0 | 4.0 | 0.00 | 0.00 | 0.00 | 53 | 1006.6 |
| 20260504181204 | 74 | 8 | 2.0 | 4.0 | 0.00 | 0.00 | 0.00 | 53 | 1006.6 |
| 20260504181107 | 74 | 21 | 1.0 | 4.0 | 0.00 | 0.00 | 0.00 | 53 | 1006.7 |
| 20260504181004 | 73 | 18 | 3.0 | 6.0 | 0.00 | 0.00 | 0.00 | 53 | 1006.6 |
| 20260504180904 | 73 | 17 | 3.0 | 6.0 | 0.00 | 0.00 | 0.00 | 53 | 1006.6 |
| 20260504180804 | 74 | 10 | 1.0 | 6.0 | 0.00 | 0.00 | 0.00 | 53 | 1006.7 |
| 20260504180704 | 74 | 357 | 1.0 | 6.0 | 0.00 | 0.00 | 0.00 | 53 | 1006.7 |
| 20260504180604 | 74 | 341 | 2.0 | 6.0 | 0.00 | 0.00 | 0.00 | 54 | 1006.7 |
| 20260504180515 | 73 | 340 | 4.0 | 6.0 | 0.00 | 0.00 | 0.00 | 53 | 1006.7 |
| 20260504180505 | 73 | 342 | 4.0 | 6.0 | 0.00 | 0.00 | 0.00 | 53 | 1006.7 |
| 20260504180405 | 74 | 343 | 1.0 | 4.0 | 0.00 | 0.00 | 0.00 | 54 | 1006.4 |
| 20260504180205 | 74 | 332 | 3.0 | 4.0 | 0.00 | 0.00 | 0.00 | 52 | 1006.7 |
| 20260504180104 | 76 | 340 | 0.0 | 4.0 | 0.00 | 0.00 | 0.00 | 51 | 1006.9 |
| 20260504180004 | 75 | 345 | 1.0 | 7.0 | 0.00 | 0.00 | 0.00 | 51 | 1007.0 |
| 20260504175904 | 75 | 344 | 0.0 | 7.0 | 0.00 | 0.00 | 0.00 | 52 | 1006.8 |
| 20260504175804 | 73 | 348 | 2.0 | 7.0 | 0.00 | 0.00 | 0.00 | 53 | 1006.8 |
| 20260504175612 | 72 | 346 | 3.0 | 7.0 | 0.00 | 0.00 | 0.00 | 53 | 1006.7 |
| 20260504175603 | 72 | 344 | 3.0 | 7.0 | 0.00 | 0.00 | 0.00 | 53 | 1006.7 |
| 20260504175504 | 72 | 342 | 4.0 | 7.0 | 0.00 | 0.00 | 0.00 | 53 | 1007.0 |
| 20260504175415 | 72 | 349 | 2.0 | 6.0 | 0.00 | 0.00 | 0.00 | 54 | 1006.8 |
| 20260504175305 | 72 | 343 | 3.0 | 7.0 | 0.00 | 0.00 | 0.00 | 54 | 1006.8 |
| 20260504175104 | 72 | 346 | 2.0 | 7.0 | 0.00 | 0.00 | 0.00 | 54 | 1006.7 |
| 20260504175004 | 72 | 348 | 3.0 | 7.0 | 0.00 | 0.00 | 0.00 | 56 | 1006.9 |
| 20260504174904 | 71 | 346 | 4.0 | 7.0 | 0.00 | 0.00 | 0.00 | 55 | 1006.9 |
| 20260504174817 | 72 | 351 | 4.0 | 7.0 | 0.00 | 0.00 | 0.00 | 55 | 1007.2 |
| 20260504174806 | 72 | 353 | 4.0 | 7.0 | 0.00 | 0.00 | 0.00 | 55 | 1007.2 |
| 20260504174505 | 73 | 354 | 3.0 | 8.0 | 0.00 | 0.00 | 0.00 | 54 | 1007.0 |
| 20260504174404 | 73 | 355 | 2.0 | 8.0 | 0.00 | 0.00 | 0.00 | 54 | 1007.2 |
| 20260504174303 | 72 | 351 | 3.0 | 8.0 | 0.00 | 0.00 | 0.00 | 54 | 1007.1 |
| 20260504174205 | 72 | 355 | 3.0 | 8.0 | 0.00 | 0.00 | 0.00 | 54 | 1007.1 |
| 20260504174103 | 72 | 9 | 5.0 | 8.0 | 0.00 | 0.00 | 0.00 | 54 | 1006.9 |
| 20260504174015 | 72 | 22 | 4.0 | 6.0 | 0.00 | 0.00 | 0.00 | 53 | 1007.0 |
| 20260504174003 | 72 | 25 | 4.0 | 6.0 | 0.00 | 0.00 | 0.00 | 53 | 1007.0 |
| 20260504173905 | 72 | 18 | 4.0 | 6.0 | 0.00 | 0.00 | 0.00 | 53 | 1007.0 |
| 20260504173703 | 72 | 357 | 4.0 | 7.0 | 0.00 | 0.00 | 0.00 | 52 | 1007.1 |
| 20260504173614 | 73 | 352 | 3.0 | 7.0 | 0.00 | 0.00 | 0.00 | 53 | 1007.0 |
| 20260504173603 | 73 | 353 | 3.0 | 7.0 | 0.00 | 0.00 | 0.00 | 53 | 1007.0 |
| 20260504173508 | 73 | 353 | 2.0 | 7.0 | 0.00 | 0.00 | 0.00 | 53 | 1007.1 |
| 20260504173206 | 73 | 39 | 2.0 | 9.0 | 0.00 | 0.00 | 0.00 | 54 | 1006.8 |
| 20260504173103 | 72 | 41 | 2.0 | 9.0 | 0.00 | 0.00 | 0.00 | 56 | 1007.0 |
| 20260504173004 | 72 | 38 | 4.0 | 9.0 | 0.00 | 0.00 | 0.00 | 55 | 1007.2 |
| 20260504172803 | 73 | 20 | 2.0 | 8.0 | 0.00 | 0.00 | 0.00 | 54 | 1007.0 |
| 20260504172703 | 73 | 6 | 2.0 | 8.0 | 0.00 | 0.00 | 0.00 | 54 | 1007.2 |
| 20260504172616 | 73 | 6 | 1.0 | 8.0 | 0.00 | 0.00 | 0.00 | 54 | 1007.3 |
| 20260504172604 | 72 | 6 | 3.0 | 8.0 | 0.00 | 0.00 | 0.00 | 55 | 1007.1 |
| 20260504172506 | 72 | 359 | 2.0 | 8.0 | 0.00 | 0.00 | 0.00 | 56 | 1007.0 |
| 20260504172304 | 71 | 352 | 4.0 | 8.0 | 0.00 | 0.00 | 0.00 | 55 | 1007.4 |
| 20260504172215 | 71 | 349 | 4.0 | 6.0 | 0.00 | 0.00 | 0.00 | 55 | 1007.4 |
| 20260504172204 | 71 | 353 | 2.0 | 7.0 | 0.00 | 0.00 | 0.00 | 55 | 1007.4 |
| 20260504172103 | 71 | 352 | 3.0 | 7.0 | 0.00 | 0.00 | 0.00 | 55 | 1007.4 |
| 20260504171905 | 71 | 357 | 4.0 | 7.0 | 0.00 | 0.00 | 0.00 | 56 | 1007.2 |
| 20260504171806 | 71 | 15 | 3.0 | 7.0 | 0.00 | 0.00 | 0.00 | 55 | 1007.5 |
| 20260504171704 | 71 | 27 | 4.0 | 7.0 | 0.00 | 0.00 | 0.00 | 56 | 1007.4 |
| 20260504171604 | 72 | 15 | 3.0 | 7.0 | 0.00 | 0.00 | 0.00 | 55 | 1007.4 |
| 20260504171504 | 73 | 16 | 1.0 | 7.0 | 0.00 | 0.00 | 0.00 | 55 | 1007.4 |
| 20260504171404 | 72 | 7 | 2.0 | 7.0 | 0.00 | 0.00 | 0.00 | 57 | 1007.4 |
| 20260504171304 | 71 | 1 | 3.0 | 7.0 | 0.00 | 0.00 | 0.00 | 57 | 1007.5 |
| 20260504171204 | 71 | 358 | 4.0 | 7.0 | 0.00 | 0.00 | 0.00 | 56 | 1007.4 |
| 20260504171119 | 72 | 9 | 3.0 | 7.0 | 0.00 | 0.00 | 0.00 | 55 | 1007.4 |
| 20260504171104 | 72 | 16 | 3.0 | 7.0 | 0.00 | 0.00 | 0.00 | 55 | 1007.4 |
| 20260504171004 | 72 | 33 | 2.0 | 7.0 | 0.00 | 0.00 | 0.00 | 56 | 1007.4 |
| 20260504170916 | 72 | 33 | 3.0 | 7.0 | 0.00 | 0.00 | 0.00 | 55 | 1007.3 |
| 20260504170815 | 73 | 27 | 2.0 | 7.0 | 0.00 | 0.00 | 0.00 | 56 | 1007.2 |
| 20260504170805 | 73 | 25 | 2.0 | 7.0 | 0.00 | 0.00 | 0.00 | 56 | 1007.2 |
| 20260504170714 | 72 | 40 | 1.0 | 7.0 | 0.00 | 0.00 | 0.00 | 56 | 1007.5 |
| 20260504170405 | 72 | 13 | 3.0 | 8.0 | 0.00 | 0.00 | 0.00 | 57 | 1007.4 |
| 20260504170304 | 72 | 20 | 2.0 | 8.0 | 0.00 | 0.00 | 0.00 | 57 | 1007.3 |
| 20260504170203 | 71 | 9 | 4.0 | 8.0 | 0.00 | 0.00 | 0.00 | 58 | 1007.5 |
| 20260504170104 | 71 | 358 | 5.0 | 8.0 | 0.00 | 0.00 | 0.00 | 59 | 1007.5 |
| 20260504160403 | 71 | 6 | 2.0 | 4.0 | 0.00 | 0.00 | 0.00 | 58 | 1008.9 |
| 20260504160304 | 71 | 356 | 2.0 | 4.0 | 0.00 | 0.00 | 0.00 | 58 | 1009.0 |
| 20260504160203 | 72 | 349 | 1.0 | 6.0 | 0.00 | 0.00 | 0.00 | 59 | 1009.0 |
| 20260504160107 | 71 | 338 | 2.0 | 6.0 | 0.00 | 0.00 | 0.00 | 60 | 1009.1 |
| 20260504151103 | 69 | 29 | 2.0 | 4.0 | 0.00 | 0.00 | 0.00 | 62 | 1009.8 |
| 20260504151005 | 69 | 39 | 2.0 | 4.0 | 0.00 | 0.00 | 0.00 | 62 | 1009.7 |
| 20260504150903 | 69 | 13 | 1.0 | 4.0 | 0.00 | 0.00 | 0.00 | 61 | 1009.8 |
| 20260504150803 | 69 | 342 | 0.0 | 4.0 | 0.00 | 0.00 | 0.00 | 62 | 1009.7 |
| 20260504150705 | 68 | 327 | 2.0 | 4.0 | 0.00 | 0.00 | 0.00 | 62 | 1009.7 |
| 20260504150608 | 69 | 300 | 2.0 | 4.0 | 0.00 | 0.00 | 0.00 | 63 | 1009.6 |
| 20260504150517 | 68 | 300 | 1.0 | 4.0 | 0.00 | 0.00 | 0.00 | 63 | 1009.8 |
| 20260504150503 | 68 | 306 | 1.0 | 4.0 | 0.00 | 0.00 | 0.00 | 63 | 1009.8 |
| 20260504150416 | 68 | 319 | 2.0 | 4.0 | 0.00 | 0.00 | 0.00 | 63 | 1009.7 |
| 20260504150405 | 68 | 322 | 2.0 | 4.0 | 0.00 | 0.00 | 0.00 | 63 | 1009.7 |
| 20260504150106 | 67 | 345 | 2.0 | 7.0 | 0.00 | 0.00 | 0.00 | 66 | 1009.7 |
| 20260504141104 | 62 | 342 | 5.0 | 8.0 | 0.00 | 0.00 | 0.00 | 70 | 1009.7 |
| 20260504141003 | 62 | 341 | 4.0 | 7.0 | 0.00 | 0.00 | 0.00 | 70 | 1009.6 |
| 20260504140903 | 62 | 347 | 2.0 | 7.0 | 0.00 | 0.00 | 0.00 | 71 | 1009.8 |
| 20260504140805 | 62 | 351 | 4.0 | 7.0 | 0.00 | 0.00 | 0.00 | 71 | 1009.7 |
| 20260504140705 | 62 | 348 | 3.0 | 7.0 | 0.00 | 0.00 | 0.00 | 71 | 1010.1 |
| 20260504140604 | 62 | 353 | 2.0 | 6.0 | 0.00 | 0.00 | 0.00 | 71 | 1010.0 |
| 20260504140503 | 62 | 356 | 4.0 | 6.0 | 0.00 | 0.00 | 0.00 | 71 | 1009.6 |
| 20260504140404 | 62 | 353 | 3.0 | 6.0 | 0.00 | 0.00 | 0.00 | 71 | 1009.7 |
| 20260504140303 | 62 | 1 | 2.0 | 6.0 | 0.00 | 0.00 | 0.00 | 71 | 1009.9 |
| 20260504140203 | 62 | 6 | 3.0 | 6.0 | 0.00 | 0.00 | 0.00 | 70 | 1009.8 |
| 20260504140107 | 63 | 3 | 2.0 | 8.0 | 0.00 | 0.00 | 0.00 | 70 | 1009.7 |
| 20260504130817 | 57 | 355 | 2.0 | 7.0 | 0.00 | 0.00 | 0.00 | 77 | 1010.0 |
| 20260504130703 | 57 | 353 | 2.0 | 8.0 | 0.00 | 0.00 | 0.00 | 78 | 1010.1 |
| 20260504130513 | 57 | 345 | 4.0 | 11.0 | 0.00 | 0.00 | 0.00 | 77 | 1010.0 |
| 20260504130505 | 57 | 343 | 4.0 | 11.0 | 0.00 | 0.00 | 0.00 | 77 | 1010.0 |
| 20260504130405 | 57 | 340 | 4.0 | 11.0 | 0.00 | 0.00 | 0.00 | 78 | 1010.1 |
| 20260504130204 | 56 | 341 | 8.0 | 11.0 | 0.00 | 0.00 | 0.00 | 77 | 1009.8 |
| 20260504130104 | 57 | 345 | 3.0 | 11.0 | 0.00 | 0.00 | 0.00 | 77 | 1010.0 |
| 20260504120303 | 53 | 19 | 2.0 | 4.0 | 0.00 | 0.00 | 0.00 | 82 | 1010.0 |
| 20260504120207 | 53 | 16 | 1.0 | 2.0 | 0.00 | 0.00 | 0.00 | 82 | 1010.1 |
| 20260504110704 | 50 | 18 | 0.0 | 2.0 | 0.00 | 0.00 | 0.00 | 90 | 1009.8 |
| 20260504110604 | 50 | 25 | 1.0 | 2.0 | 0.00 | 0.00 | 0.00 | 90 | 1009.9 |
| 20260504110505 | 50 | 29 | 0.0 | 2.0 | 0.00 | 0.00 | 0.00 | 90 | 1009.9 |
| 20260504110403 | 50 | 37 | 1.0 | 2.0 | 0.00 | 0.00 | 0.00 | 90 | 1010.0 |
| 20260504110304 | 50 | 48 | 2.0 | 2.0 | 0.00 | 0.00 | 0.00 | 90 | 1009.8 |
| 20260504110215 | 50 | 61 | 1.0 | 2.0 | 0.00 | 0.00 | 0.00 | 90 | 1010.1 |
| 20260504110205 | 50 | 66 | 1.0 | 4.0 | 0.00 | 0.00 | 0.00 | 90 | 1009.8 |
| 20260504100606 | 49 | 91 | 2.0 | 2.0 | 0.00 | 0.00 | 0.00 | 90 | 1009.5 |
| 20260504100503 | 49 | 91 | 2.0 | 2.0 | 0.00 | 0.00 | 0.00 | 90 | 1009.4 |
| 20260504100304 | 49 | 91 | 2.0 | 4.0 | 0.00 | 0.00 | 0.00 | 89 | 1009.3 |
| 20260504100205 | 49 | 90 | 1.0 | 4.0 | 0.00 | 0.00 | 0.00 | 89 | 1009.1 |
| 20260504100104 | 49 | 90 | 1.0 | 4.0 | 0.00 | 0.00 | 0.00 | 89 | 1009.3 |
| 20260504082004 | 50 | 42 | 2.0 | 4.0 | 0.00 | 0.00 | 0.00 | 85 | 1008.9 |
| 20260504081905 | 50 | 33 | 2.0 | 4.0 | 0.00 | 0.00 | 0.00 | 85 | 1008.9 |
| 20260504081815 | 50 | 21 | 2.0 | 4.0 | 0.00 | 0.00 | 0.00 | 84 | 1008.9 |
| 20260504081804 | 50 | 21 | 2.0 | 4.0 | 0.00 | 0.00 | 0.00 | 84 | 1008.7 |
| 20260504081703 | 50 | 20 | 1.0 | 4.0 | 0.00 | 0.00 | 0.00 | 84 | 1008.6 |
| 20260504081617 | 50 | 17 | 1.0 | 4.0 | 0.00 | 0.00 | 0.00 | 84 | 1008.7 |
| 20260504081503 | 50 | 19 | 1.0 | 4.0 | 0.00 | 0.00 | 0.00 | 84 | 1009.0 |
| 20260504081313 | 50 | 31 | 3.0 | 4.0 | 0.00 | 0.00 | 0.00 | 84 | 1008.9 |
| 20260504081303 | 50 | 32 | 3.0 | 4.0 | 0.00 | 0.00 | 0.00 | 84 | 1008.9 |
| 20260504081203 | 50 | 30 | 2.0 | 2.0 | 0.00 | 0.00 | 0.00 | 84 | 1008.9 |
| 20260504081115 | 50 | 35 | 2.0 | 2.0 | 0.00 | 0.00 | 0.00 | 84 | 1008.9 |
| 20260504081005 | 50 | 33 | 1.0 | 4.0 | 0.00 | 0.00 | 0.00 | 84 | 1008.9 |
| 20260504080703 | 50 | 29 | 2.0 | 4.0 | 0.00 | 0.00 | 0.00 | 84 | 1008.8 |
| 20260504080603 | 50 | 25 | 2.0 | 4.0 | 0.00 | 0.00 | 0.00 | 84 | 1008.8 |
| 20260504080517 | 50 | 25 | 2.0 | 4.0 | 0.00 | 0.00 | 0.00 | 84 | 1008.9 |
| 20260504080503 | 50 | 24 | 2.0 | 4.0 | 0.00 | 0.00 | 0.00 | 84 | 1008.9 |
| 20260504080404 | 50 | 27 | 2.0 | 4.0 | 0.00 | 0.00 | 0.00 | 84 | 1008.9 |
| 20260504080203 | 50 | 23 | 2.0 | 4.0 | 0.00 | 0.00 | 0.00 | 84 | 1008.8 |
| 20260504080106 | 50 | 19 | 2.0 | 4.0 | 0.00 | 0.00 | 0.00 | 84 | 1008.9 |
| 20260504070403 | 52 | 10 | 2.0 | 6.0 | 0.00 | 0.00 | 0.00 | 80 | 1009.7 |
| 20260504070304 | 52 | 17 | 2.0 | 6.0 | 0.00 | 0.00 | 0.00 | 80 | 1009.7 |
| 20260504070106 | 52 | 23 | 2.0 | 4.0 | 0.00 | 0.00 | 0.00 | 80 | 1009.9 |
| 20260504060204 | 52 | 5 | 2.0 | 4.0 | 0.00 | 0.00 | 0.00 | 78 | 1010.2 |
| 20260504060104 | 52 | 14 | 1.0 | 4.0 | 0.00 | 0.00 | 0.00 | 78 | 1010.2 |
| 20260504050709 | 53 | 6 | 2.0 | 6.0 | 0.00 | 0.00 | 0.00 | 76 | 1010.6 |
| 20260504050504 | 53 | 10 | 2.0 | 6.0 | 0.00 | 0.00 | 0.00 | 77 | 1010.3 |
| 20260504050409 | 53 | 12 | 1.0 | 6.0 | 0.00 | 0.00 | 0.00 | 77 | 1010.8 |
| 20260504050304 | 53 | 16 | 2.0 | 6.0 | 0.00 | 0.00 | 0.00 | 77 | 1010.6 |
| 20260504050205 | 53 | 18 | 2.0 | 6.0 | 0.00 | 0.00 | 0.00 | 77 | 1010.6 |
| 20260504050103 | 53 | 17 | 4.0 | 6.0 | 0.00 | 0.00 | 0.00 | 78 | 1010.5 |
| 20260504050016 | 53 | 16 | 3.0 | 4.0 | 0.00 | 0.00 | 0.00 | 78 | 1010.5 |
| 20260504050006 | 53 | 18 | 3.0 | 4.0 | 0.00 | 0.00 | 0.00 | 78 | 1010.5 |
| 20260504045907 | 53 | 15 | 2.0 | 4.0 | 0.00 | 0.00 | 0.00 | 78 | 1010.4 |
| 20260504045704 | 53 | 17 | 2.0 | 4.0 | 0.00 | 0.00 | 0.00 | 78 | 1010.3 |
| 20260504045616 | 53 | 17 | 3.0 | 6.0 | 0.00 | 0.00 | 0.00 | 78 | 1010.1 |
| 20260504045604 | 53 | 16 | 3.0 | 6.0 | 0.00 | 0.00 | 0.00 | 78 | 1010.1 |
| 20260504045503 | 53 | 12 | 2.0 | 6.0 | 0.00 | 0.00 | 0.00 | 78 | 1010.2 |
| 20260504045317 | 53 | 10 | 2.0 | 6.0 | 0.00 | 0.00 | 0.00 | 77 | 1010.2 |
| 20260504045305 | 53 | 11 | 2.0 | 6.0 | 0.00 | 0.00 | 0.00 | 77 | 1010.2 |
| 20260504045204 | 53 | 16 | 2.0 | 6.0 | 0.00 | 0.00 | 0.00 | 77 | 1010.1 |
| 20260504045005 | 53 | 32 | 0.0 | 6.0 | 0.00 | 0.00 | 0.00 | 77 | 1010.2 |
| 20260504044906 | 53 | 30 | 1.0 | 6.0 | 0.00 | 0.00 | 0.00 | 77 | 1010.3 |
| 20260504044806 | 53 | 24 | 2.0 | 6.0 | 0.00 | 0.00 | 0.00 | 77 | 1010.1 |
| 20260504044603 | 53 | 13 | 2.0 | 4.0 | 0.00 | 0.00 | 0.00 | 77 | 1009.9 |
| 20260504044504 | 53 | 18 | 3.0 | 4.0 | 0.00 | 0.00 | 0.00 | 77 | 1010.2 |
| 20260504044405 | 53 | 17 | 2.0 | 4.0 | 0.00 | 0.00 | 0.00 | 77 | 1010.1 |
| 20260504044309 | 53 | 19 | 3.0 | 4.0 | 0.00 | 0.00 | 0.00 | 77 | 1010.2 |
| 20260504044216 | 53 | 18 | 2.0 | 6.0 | 0.00 | 0.00 | 0.00 | 77 | 1010.2 |
| 20260504044204 | 53 | 17 | 2.0 | 6.0 | 0.00 | 0.00 | 0.00 | 77 | 1010.5 |
| 20260504044103 | 53 | 18 | 2.0 | 6.0 | 0.00 | 0.00 | 0.00 | 77 | 1010.4 |
| 20260504043905 | 53 | 20 | 2.0 | 6.0 | 0.00 | 0.00 | 0.00 | 77 | 1010.2 |
| 20260504043805 | 53 | 23 | 3.0 | 6.0 | 0.00 | 0.00 | 0.00 | 77 | 1010.3 |
| 20260504043714 | 53 | 21 | 3.0 | 6.0 | 0.00 | 0.00 | 0.00 | 77 | 1010.1 |
| 20260504043603 | 53 | 23 | 2.0 | 6.0 | 0.00 | 0.00 | 0.00 | 77 | 1010.3 |
| 20260504043405 | 53 | 8 | 2.0 | 6.0 | 0.00 | 0.00 | 0.00 | 77 | 1010.1 |
| 20260504043303 | 53 | 11 | 2.0 | 6.0 | 0.00 | 0.00 | 0.00 | 77 | 1010.1 |
| 20260504043204 | 53 | 22 | 4.0 | 6.0 | 0.00 | 0.00 | 0.00 | 77 | 1010.2 |
| 20260504043103 | 53 | 20 | 2.0 | 6.0 | 0.00 | 0.00 | 0.00 | 77 | 1010.3 |
| 20260504043004 | 53 | 37 | 2.0 | 4.0 | 0.00 | 0.00 | 0.00 | 77 | 1010.5 |
| 20260504042904 | 53 | 36 | 2.0 | 4.0 | 0.00 | 0.00 | 0.00 | 77 | 1010.2 |
| 20260504042816 | 53 | 32 | 2.0 | 4.0 | 0.00 | 0.00 | 0.00 | 77 | 1010.4 |
| 20260504042803 | 53 | 30 | 2.0 | 4.0 | 0.00 | 0.00 | 0.00 | 77 | 1010.4 |
| 20260504042704 | 53 | 31 | 2.0 | 4.0 | 0.00 | 0.00 | 0.00 | 77 | 1010.3 |
| 20260504042404 | 53 | 45 | 2.0 | 4.0 | 0.00 | 0.00 | 0.00 | 77 | 1010.7 |
| 20260504042304 | 53 | 50 | 2.0 | 4.0 | 0.00 | 0.00 | 0.00 | 77 | 1010.5 |
| 20260504042205 | 53 | 48 | 1.0 | 4.0 | 0.00 | 0.00 | 0.00 | 77 | 1010.5 |
| 20260504042104 | 53 | 53 | 2.0 | 4.0 | 0.00 | 0.00 | 0.00 | 77 | 1010.6 |
| 20260504042005 | 53 | 58 | 2.0 | 4.0 | 0.00 | 0.00 | 0.00 | 77 | 1010.4 |
| 20260504041909 | 53 | 55 | 2.0 | 4.0 | 0.00 | 0.00 | 0.00 | 77 | 1010.5 |
| 20260504041804 | 53 | 49 | 2.0 | 4.0 | 0.00 | 0.00 | 0.00 | 77 | 1010.3 |
| 20260504041704 | 53 | 39 | 2.0 | 4.0 | 0.00 | 0.00 | 0.00 | 77 | 1010.4 |
| 20260504041604 | 53 | 27 | 2.0 | 4.0 | 0.00 | 0.00 | 0.00 | 77 | 1010.6 |
| 20260504041504 | 53 | 17 | 2.0 | 4.0 | 0.00 | 0.00 | 0.00 | 77 | 1010.8 |
| 20260504041405 | 53 | 9 | 2.0 | 4.0 | 0.00 | 0.00 | 0.00 | 77 | 1010.8 |
| 20260504041304 | 53 | 360 | 1.0 | 4.0 | 0.00 | 0.00 | 0.00 | 77 | 1010.6 |
| 20260504041204 | 53 | 360 | 2.0 | 4.0 | 0.00 | 0.00 | 0.00 | 77 | 1010.6 |
| 20260504040903 | 53 | 50 | 2.0 | 4.0 | 0.00 | 0.00 | 0.00 | 77 | 1010.7 |
| 20260504040806 | 53 | 54 | 2.0 | 6.0 | 0.00 | 0.00 | 0.00 | 76 | 1010.6 |
| 20260504040603 | 53 | 40 | 2.0 | 6.0 | 0.00 | 0.00 | 0.00 | 76 | 1010.6 |
| 20260504040505 | 53 | 41 | 2.0 | 6.0 | 0.00 | 0.00 | 0.00 | 76 | 1010.5 |
| 20260504040403 | 53 | 50 | 2.0 | 7.0 | 0.00 | 0.00 | 0.00 | 77 | 1010.4 |
| 20260504040303 | 53 | 45 | 2.0 | 7.0 | 0.00 | 0.00 | 0.00 | 77 | 1010.7 |
| 20260504040203 | 53 | 44 | 3.0 | 7.0 | 0.00 | 0.00 | 0.00 | 77 | 1010.4 |
| 20260504040104 | 53 | 56 | 2.0 | 7.0 | 0.00 | 0.00 | 0.00 | 77 | 1010.6 |
| 20260504040006 | 53 | 57 | 3.0 | 7.0 | 0.00 | 0.00 | 0.00 | 77 | 1010.5 |
| 20260504035903 | 53 | 48 | 2.0 | 4.0 | 0.00 | 0.00 | 0.00 | 77 | 1010.6 |
| 20260504035804 | 53 | 42 | 2.0 | 4.0 | 0.00 | 0.00 | 0.00 | 77 | 1010.7 |
| 20260504035709 | 53 | 36 | 1.0 | 4.0 | 0.00 | 0.00 | 0.00 | 77 | 1010.6 |
| 20260504035603 | 53 | 22 | 2.0 | 4.0 | 0.00 | 0.00 | 0.00 | 77 | 1010.7 |
| 20260504035503 | 53 | 18 | 2.0 | 4.0 | 0.00 | 0.00 | 0.00 | 77 | 1010.8 |
| 20260504035403 | 53 | 17 | 2.0 | 4.0 | 0.00 | 0.00 | 0.00 | 77 | 1010.7 |
| 20260504035305 | 53 | 31 | 2.0 | 4.0 | 0.00 | 0.00 | 0.00 | 77 | 1010.8 |
| 20260504035203 | 53 | 46 | 2.0 | 4.0 | 0.00 | 0.00 | 0.00 | 77 | 1010.8 |
| 20260504035120 | 53 | 60 | 2.0 | 4.0 | 0.00 | 0.00 | 0.00 | 77 | 1011.1 |
| 20260504035104 | 53 | 65 | 1.0 | 2.0 | 0.00 | 0.00 | 0.00 | 77 | 1010.9 |
| 20260504035003 | 53 | 56 | 1.0 | 2.0 | 0.00 | 0.00 | 0.00 | 77 | 1010.7 |
| 20260504034804 | 53 | 35 | 0.0 | 2.0 | 0.00 | 0.00 | 0.00 | 78 | 1010.9 |
| 20260504034714 | 54 | 33 | 0.0 | 2.0 | 0.00 | 0.00 | 0.00 | 78 | 1010.7 |
| 20260504034704 | 54 | 32 | 0.0 | 2.0 | 0.00 | 0.00 | 0.00 | 78 | 1010.7 |
| 20260504034604 | 54 | 33 | 1.0 | 2.0 | 0.00 | 0.00 | 0.00 | 78 | 1010.7 |
| 20260504034516 | 54 | 35 | 2.0 | 2.0 | 0.00 | 0.00 | 0.00 | 78 | 1010.9 |
| 20260504034407 | 54 | 42 | 2.0 | 2.0 | 0.00 | 0.00 | 0.00 | 78 | 1010.7 |
| 20260504034314 | 54 | 42 | 1.0 | 2.0 | 0.00 | 0.00 | 0.00 | 78 | 1010.9 |
| 20260504034205 | 54 | 33 | 2.0 | 2.0 | 0.00 | 0.00 | 0.00 | 77 | 1010.9 |
| 20260504034007 | 54 | 42 | 1.0 | 2.0 | 0.00 | 0.00 | 0.00 | 77 | 1010.9 |
| 20260504033905 | 54 | 52 | 2.0 | 2.0 | 0.00 | 0.00 | 0.00 | 77 | 1011.3 |
| 20260504033804 | 54 | 61 | 2.0 | 2.0 | 0.00 | 0.00 | 0.00 | 77 | 1011.3 |
| 20260504033705 | 54 | 82 | 2.0 | 2.0 | 0.00 | 0.00 | 0.00 | 77 | 1011.5 |
| 20260504033604 | 54 | 90 | 1.0 | 2.0 | 0.00 | 0.00 | 0.00 | 77 | 1011.3 |
| 20260504033505 | 54 | 90 | 1.0 | 2.0 | 0.00 | 0.00 | 0.00 | 77 | 1011.4 |
| 20260504033404 | 54 | 90 | 1.0 | 2.0 | 0.00 | 0.00 | 0.00 | 76 | 1011.4 |
| 20260504033307 | 54 | 90 | 1.0 | 2.0 | 0.00 | 0.00 | 0.00 | 76 | 1011.3 |
| 20260504033205 | 54 | 86 | 1.0 | 2.0 | 0.00 | 0.00 | 0.00 | 76 | 1011.4 |
| 20260504033104 | 54 | 80 | 1.0 | 2.0 | 0.00 | 0.00 | 0.00 | 76 | 1011.4 |
| 20260504033004 | 54 | 76 | 1.0 | 2.0 | 0.00 | 0.00 | 0.00 | 76 | 1011.4 |
| 20260504032904 | 54 | 70 | 0.0 | 2.0 | 0.00 | 0.00 | 0.00 | 75 | 1011.4 |
| 20260504032818 | 54 | 70 | 0.0 | 2.0 | 0.00 | 0.00 | 0.00 | 75 | 1011.4 |
| 20260504032803 | 54 | 71 | 0.0 | 2.0 | 0.00 | 0.00 | 0.00 | 75 | 1011.4 |
| 20260504032704 | 54 | 64 | 1.0 | 2.0 | 0.00 | 0.00 | 0.00 | 75 | 1011.1 |
| 20260504032505 | 54 | 71 | 0.0 | 4.0 | 0.00 | 0.00 | 0.00 | 74 | 1011.4 |
| 20260504032405 | 54 | 71 | 0.0 | 4.0 | 0.00 | 0.00 | 0.00 | 74 | 1011.4 |
| 20260504032316 | 54 | 52 | 1.0 | 4.0 | 0.00 | 0.00 | 0.00 | 73 | 1011.3 |
| 20260504032304 | 54 | 48 | 1.0 | 4.0 | 0.00 | 0.00 | 0.00 | 73 | 1011.3 |
| 20260504032205 | 54 | 43 | 1.0 | 4.0 | 0.00 | 0.00 | 0.00 | 73 | 1011.2 |
| 20260504032004 | 55 | 21 | 2.0 | 4.0 | 0.00 | 0.00 | 0.00 | 72 | 1011.1 |
| 20260504031903 | 54 | 11 | 2.0 | 4.0 | 0.00 | 0.00 | 0.00 | 72 | 1011.3 |
| 20260504031803 | 54 | 11 | 1.0 | 4.0 | 0.00 | 0.00 | 0.00 | 72 | 1011.1 |
| 20260504031706 | 54 | 9 | 2.0 | 4.0 | 0.00 | 0.00 | 0.00 | 72 | 1011.4 |
| 20260504031604 | 55 | 11 | 1.0 | 4.0 | 0.00 | 0.00 | 0.00 | 72 | 1011.4 |
| 20260504031520 | 55 | 15 | 2.0 | 4.0 | 0.00 | 0.00 | 0.00 | 72 | 1011.2 |
| 20260504031505 | 55 | 17 | 2.0 | 4.0 | 0.00 | 0.00 | 0.00 | 72 | 1011.0 |
| 20260504031404 | 55 | 25 | 2.0 | 4.0 | 0.00 | 0.00 | 0.00 | 72 | 1011.2 |
| 20260504031114 | 55 | 20 | 2.0 | 4.0 | 0.00 | 0.00 | 0.00 | 72 | 1011.2 |
| 20260504031104 | 55 | 18 | 1.0 | 4.0 | 0.00 | 0.00 | 0.00 | 72 | 1011.2 |
| 20260504031003 | 55 | 14 | 1.0 | 4.0 | 0.00 | 0.00 | 0.00 | 72 | 1011.2 |
| 20260504030805 | 55 | 7 | 2.0 | 4.0 | 0.00 | 0.00 | 0.00 | 72 | 1011.4 |
| 20260504030704 | 55 | 9 | 1.0 | 4.0 | 0.00 | 0.00 | 0.00 | 73 | 1011.3 |
| 20260504030505 | 54 | 23 | 2.0 | 4.0 | 0.00 | 0.00 | 0.00 | 73 | 1011.3 |
| 20260504030403 | 54 | 32 | 1.0 | 4.0 | 0.00 | 0.00 | 0.00 | 73 | 1011.3 |
| 20260504030303 | 54 | 37 | 2.0 | 4.0 | 0.00 | 0.00 | 0.00 | 73 | 1011.4 |
| 20260504030206 | 54 | 46 | 2.0 | 4.0 | 0.00 | 0.00 | 0.00 | 73 | 1011.5 |
| 20260504030105 | 54 | 39 | 1.0 | 2.0 | 0.00 | 0.00 | 0.00 | 73 | 1011.3 |
| 20260504030005 | 54 | 24 | 1.0 | 4.0 | 0.00 | 0.00 | 0.00 | 73 | 1011.5 |
| 20260504025904 | 54 | 12 | 2.0 | 4.0 | 0.00 | 0.00 | 0.00 | 73 | 1011.4 |
| 20260504025804 | 54 | 8 | 2.0 | 4.0 | 0.00 | 0.00 | 0.00 | 73 | 1011.6 |
| 20260504025719 | 54 | 5 | 1.0 | 4.0 | 0.00 | 0.00 | 0.00 | 73 | 1011.3 |
| 20260504025704 | 54 | 4 | 1.0 | 4.0 | 0.00 | 0.00 | 0.00 | 73 | 1011.3 |
| 20260504025604 | 54 | 3 | 2.0 | 4.0 | 0.00 | 0.00 | 0.00 | 73 | 1011.2 |
| 20260504025522 | 54 | 7 | 2.0 | 4.0 | 0.00 | 0.00 | 0.00 | 73 | 1011.2 |
| 20260504025404 | 55 | 6 | 2.0 | 4.0 | 0.00 | 0.00 | 0.00 | 73 | 1011.4 |
| 20260504025205 | 55 | 13 | 2.0 | 4.0 | 0.00 | 0.00 | 0.00 | 73 | 1011.4 |
| 20260504025121 | 55 | 14 | 2.0 | 4.0 | 0.00 | 0.00 | 0.00 | 73 | 1011.3 |
| 20260504025104 | 55 | 14 | 3.0 | 4.0 | 0.00 | 0.00 | 0.00 | 73 | 1011.4 |
| 20260504025004 | 55 | 12 | 2.0 | 4.0 | 0.00 | 0.00 | 0.00 | 72 | 1011.5 |
| 20260504024804 | 55 | 22 | 2.0 | 4.0 | 0.00 | 0.00 | 0.00 | 73 | 1011.5 |
| 20260504024703 | 55 | 9 | 1.0 | 4.0 | 0.00 | 0.00 | 0.00 | 73 | 1011.8 |
| 20260504024604 | 55 | 1 | 0.0 | 4.0 | 0.00 | 0.00 | 0.00 | 73 | 1011.6 |
| 20260504024504 | 55 | 358 | 1.0 | 4.0 | 0.00 | 0.00 | 0.00 | 73 | 1011.8 |
| 20260504024404 | 55 | 354 | 1.0 | 4.0 | 0.00 | 0.00 | 0.00 | 73 | 1011.8 |
| 20260504024304 | 55 | 350 | 2.0 | 4.0 | 0.00 | 0.00 | 0.00 | 73 | 1011.9 |
| 20260504024204 | 55 | 354 | 1.0 | 4.0 | 0.00 | 0.00 | 0.00 | 73 | 1011.9 |
| 20260504024107 | 55 | 2 | 1.0 | 2.0 | 0.00 | 0.00 | 0.00 | 73 | 1011.8 |
| 20260504024006 | 55 | 4 | 2.0 | 2.0 | 0.00 | 0.00 | 0.00 | 73 | 1012.1 |
| 20260504023904 | 55 | 4 | 2.0 | 2.0 | 0.00 | 0.00 | 0.00 | 73 | 1011.8 |
| 20260504023804 | 55 | 4 | 2.0 | 2.0 | 0.00 | 0.00 | 0.00 | 73 | 1011.8 |
| 20260504023704 | 55 | 7 | 1.0 | 2.0 | 0.00 | 0.00 | 0.00 | 74 | 1011.9 |
| 20260504023604 | 55 | 5 | 2.0 | 4.0 | 0.00 | 0.00 | 0.00 | 74 | 1011.9 |
| 20260504023404 | 55 | 13 | 2.0 | 4.0 | 0.00 | 0.00 | 0.00 | 74 | 1011.9 |
| 20260504023304 | 55 | 16 | 0.0 | 4.0 | 0.00 | 0.00 | 0.00 | 74 | 1012.0 |
| 20260504023204 | 55 | 15 | 1.0 | 4.0 | 0.00 | 0.00 | 0.00 | 74 | 1011.8 |
| 20260504023117 | 55 | 28 | 2.0 | 4.0 | 0.00 | 0.00 | 0.00 | 75 | 1012.0 |
| 20260504023105 | 55 | 37 | 2.0 | 2.0 | 0.00 | 0.00 | 0.00 | 75 | 1011.8 |
| 20260504023008 | 55 | 45 | 0.0 | 2.0 | 0.00 | 0.00 | 0.00 | 75 | 1011.7 |
| 20260504022804 | 55 | 37 | 0.0 | 2.0 | 0.00 | 0.00 | 0.00 | 75 | 1011.9 |
| 20260504022703 | 55 | 34 | 1.0 | 2.0 | 0.00 | 0.00 | 0.00 | 74 | 1011.7 |
| 20260504022604 | 55 | 30 | 2.0 | 2.0 | 0.00 | 0.00 | 0.00 | 74 | 1011.8 |
| 20260504022505 | 55 | 22 | 2.0 | 2.0 | 0.00 | 0.00 | 0.00 | 74 | 1011.7 |
| 20260504022404 | 55 | 19 | 1.0 | 2.0 | 0.00 | 0.00 | 0.00 | 74 | 1011.8 |
| 20260504022305 | 55 | 19 | 1.0 | 2.0 | 0.00 | 0.00 | 0.00 | 74 | 1011.9 |
| 20260504022204 | 55 | 18 | 1.0 | 2.0 | 0.00 | 0.00 | 0.00 | 74 | 1011.9 |
| 20260504022103 | 55 | 20 | 1.0 | 2.0 | 0.00 | 0.00 | 0.00 | 74 | 1012.0 |
| 20260504021905 | 55 | 22 | 1.0 | 2.0 | 0.00 | 0.00 | 0.00 | 73 | 1011.7 |
| 20260504021803 | 55 | 20 | 0.0 | 2.0 | 0.00 | 0.00 | 0.00 | 73 | 1011.9 |
| 20260504021703 | 55 | 12 | 0.0 | 2.0 | 0.00 | 0.00 | 0.00 | 73 | 1011.7 |
| 20260504021604 | 55 | 5 | 0.0 | 2.0 | 0.00 | 0.00 | 0.00 | 73 | 1011.7 |
| 20260504021503 | 55 | 358 | 1.0 | 2.0 | 0.00 | 0.00 | 0.00 | 72 | 1011.7 |
| 20260504021405 | 55 | 356 | 0.0 | 2.0 | 0.00 | 0.00 | 0.00 | 72 | 1011.6 |
| 20260504021303 | 55 | 1 | 1.0 | 2.0 | 0.00 | 0.00 | 0.00 | 72 | 1011.4 |
| 20260504021205 | 55 | 11 | 1.0 | 4.0 | 0.00 | 0.00 | 0.00 | 72 | 1011.8 |
| 20260504021120 | 55 | 20 | 0.0 | 4.0 | 0.00 | 0.00 | 0.00 | 72 | 1011.4 |
| 20260504021104 | 55 | 23 | 1.0 | 4.0 | 0.00 | 0.00 | 0.00 | 72 | 1011.6 |
| 20260504021004 | 55 | 30 | 1.0 | 4.0 | 0.00 | 0.00 | 0.00 | 72 | 1011.4 |
| 20260504020805 | 55 | 35 | 1.0 | 4.0 | 0.00 | 0.00 | 0.00 | 72 | 1011.4 |
| 20260504020705 | 55 | 30 | 2.0 | 4.0 | 0.00 | 0.00 | 0.00 | 72 | 1011.4 |
| 20260504020606 | 55 | 23 | 2.0 | 4.0 | 0.00 | 0.00 | 0.00 | 72 | 1011.4 |
| 20260504020506 | 55 | 17 | 1.0 | 4.0 | 0.00 | 0.00 | 0.00 | 72 | 1011.4 |
| 20260504020405 | 55 | 12 | 2.0 | 4.0 | 0.00 | 0.00 | 0.00 | 72 | 1011.5 |
| 20260504020306 | 55 | 6 | 2.0 | 4.0 | 0.00 | 0.00 | 0.00 | 71 | 1011.6 |
| 20260504020204 | 55 | 9 | 2.0 | 4.0 | 0.00 | 0.00 | 0.00 | 71 | 1011.6 |
| 20260504020104 | 55 | 9 | 2.0 | 4.0 | 0.00 | 0.00 | 0.00 | 71 | 1011.6 |
| 20260504020004 | 55 | 11 | 1.0 | 4.0 | 0.00 | 0.00 | 0.00 | 71 | 1011.5 |
| 20260504015905 | 55 | 10 | 2.0 | 4.0 | 0.00 | 0.00 | 0.00 | 71 | 1011.5 |
| 20260504015804 | 55 | 9 | 2.0 | 4.0 | 0.00 | 0.00 | 0.00 | 71 | 1011.4 |
| 20260504015704 | 55 | 8 | 2.0 | 4.0 | 0.00 | 0.00 | 0.00 | 71 | 1011.6 |
| 20260504015504 | 55 | 3 | 2.0 | 4.0 | 0.00 | 0.00 | 0.00 | 72 | 1011.7 |
| 20260504015407 | 55 | 353 | 2.0 | 4.0 | 0.00 | 0.00 | 0.00 | 72 | 1011.7 |
| 20260504015305 | 55 | 359 | 2.0 | 4.0 | 0.00 | 0.00 | 0.00 | 72 | 1011.6 |
| 20260504015213 | 55 | 4 | 2.0 | 4.0 | 0.00 | 0.00 | 0.00 | 72 | 1011.8 |
| 20260504015204 | 55 | 5 | 2.0 | 4.0 | 0.00 | 0.00 | 0.00 | 72 | 1011.8 |
| 20260504015104 | 55 | 5 | 2.0 | 4.0 | 0.00 | 0.00 | 0.00 | 72 | 1011.7 |
| 20260504014905 | 55 | 18 | 2.0 | 4.0 | 0.00 | 0.00 | 0.00 | 72 | 1011.5 |
| 20260504014803 | 55 | 22 | 2.0 | 4.0 | 0.00 | 0.00 | 0.00 | 72 | 1011.6 |
| 20260504014704 | 55 | 17 | 2.0 | 4.0 | 0.00 | 0.00 | 0.00 | 72 | 1011.3 |
| 20260504014604 | 55 | 25 | 2.0 | 4.0 | 0.00 | 0.00 | 0.00 | 72 | 1011.5 |
| 20260504014504 | 55 | 30 | 2.0 | 4.0 | 0.00 | 0.00 | 0.00 | 72 | 1011.2 |
| 20260504014403 | 55 | 35 | 2.0 | 4.0 | 0.00 | 0.00 | 0.00 | 72 | 1011.5 |
| 20260504014305 | 55 | 29 | 2.0 | 4.0 | 0.00 | 0.00 | 0.00 | 73 | 1011.3 |
| 20260504014203 | 55 | 21 | 2.0 | 4.0 | 0.00 | 0.00 | 0.00 | 73 | 1011.4 |
| 20260504014105 | 55 | 13 | 2.0 | 4.0 | 0.00 | 0.00 | 0.00 | 72 | 1011.5 |
| 20260504014004 | 55 | 4 | 2.0 | 4.0 | 0.00 | 0.00 | 0.00 | 73 | 1011.5 |
| 20260504013914 | 55 | 6 | 2.0 | 4.0 | 0.00 | 0.00 | 0.00 | 73 | 1011.5 |
| 20260504013904 | 55 | 6 | 1.0 | 4.0 | 0.00 | 0.00 | 0.00 | 73 | 1011.4 |
| 20260504013805 | 55 | 8 | 2.0 | 4.0 | 0.00 | 0.00 | 0.00 | 73 | 1011.5 |
| 20260504013606 | 55 | 20 | 1.0 | 4.0 | 0.00 | 0.00 | 0.00 | 73 | 1011.4 |
| 20260504013514 | 55 | 29 | 2.0 | 4.0 | 0.00 | 0.00 | 0.00 | 73 | 1011.4 |
| 20260504013503 | 55 | 34 | 0.0 | 4.0 | 0.00 | 0.00 | 0.00 | 72 | 1011.5 |
| 20260504013403 | 56 | 37 | 1.0 | 4.0 | 0.00 | 0.00 | 0.00 | 72 | 1011.5 |
| 20260504013204 | 56 | 38 | 2.0 | 4.0 | 0.00 | 0.00 | 0.00 | 72 | 1011.7 |
| 20260504013105 | 56 | 45 | 2.0 | 4.0 | 0.00 | 0.00 | 0.00 | 72 | 1011.5 |
| 20260504013004 | 56 | 43 | 2.0 | 4.0 | 0.00 | 0.00 | 0.00 | 72 | 1011.9 |
| 20260504012903 | 56 | 32 | 2.0 | 4.0 | 0.00 | 0.00 | 0.00 | 72 | 1011.6 |
| 20260504012708 | 56 | 28 | 2.0 | 4.0 | 0.00 | 0.00 | 0.00 | 72 | 1012.0 |
| 20260504012608 | 56 | 30 | 2.0 | 4.0 | 0.00 | 0.00 | 0.00 | 72 | 1011.6 |
| 20260504012503 | 56 | 29 | 1.0 | 4.0 | 0.00 | 0.00 | 0.00 | 72 | 1011.9 |
| 20260504012418 | 56 | 34 | 1.0 | 4.0 | 0.00 | 0.00 | 0.00 | 72 | 1011.5 |
| 20260504012405 | 56 | 35 | 1.0 | 4.0 | 0.00 | 0.00 | 0.00 | 72 | 1011.5 |
| 20260504012304 | 56 | 39 | 2.0 | 4.0 | 0.00 | 0.00 | 0.00 | 73 | 1011.9 |
| 20260504012104 | 56 | 27 | 2.0 | 4.0 | 0.00 | 0.00 | 0.00 | 73 | 1011.6 |
| 20260504012004 | 56 | 28 | 1.0 | 4.0 | 0.00 | 0.00 | 0.00 | 73 | 1011.8 |
| 20260504011904 | 56 | 28 | 2.0 | 4.0 | 0.00 | 0.00 | 0.00 | 73 | 1011.7 |
| 20260504011706 | 55 | 27 | 2.0 | 4.0 | 0.00 | 0.00 | 0.00 | 74 | 1011.5 |
| 20260504011604 | 55 | 27 | 2.0 | 4.0 | 0.00 | 0.00 | 0.00 | 74 | 1011.6 |
| 20260504011505 | 56 | 22 | 0.0 | 2.0 | 0.00 | 0.00 | 0.00 | 74 | 1011.6 |
| 20260504011404 | 56 | 17 | 2.0 | 4.0 | 0.00 | 0.00 | 0.00 | 74 | 1011.7 |
| 20260504011318 | 56 | 14 | 1.0 | 4.0 | 0.00 | 0.00 | 0.00 | 74 | 1011.7 |
| 20260504011305 | 56 | 15 | 1.0 | 4.0 | 0.00 | 0.00 | 0.00 | 74 | 1011.7 |
| 20260504011205 | 56 | 22 | 1.0 | 4.0 | 0.00 | 0.00 | 0.00 | 74 | 1011.7 |
| 20260504011115 | 56 | 32 | 1.0 | 4.0 | 0.00 | 0.00 | 0.00 | 74 | 1011.6 |
| 20260504011005 | 56 | 28 | 1.0 | 4.0 | 0.00 | 0.00 | 0.00 | 74 | 1011.4 |
| 20260504010804 | 56 | 46 | 2.0 | 4.0 | 0.00 | 0.00 | 0.00 | 74 | 1012.0 |
| 20260504010705 | 56 | 41 | 2.0 | 4.0 | 0.00 | 0.00 | 0.00 | 74 | 1011.6 |
| 20260504010604 | 56 | 32 | 2.0 | 4.0 | 0.00 | 0.00 | 0.00 | 74 | 1011.6 |
| 20260504010506 | 56 | 33 | 1.0 | 4.0 | 0.00 | 0.00 | 0.00 | 74 | 1011.8 |
| 20260504010405 | 56 | 31 | 1.0 | 4.0 | 0.00 | 0.00 | 0.00 | 74 | 1011.6 |
| 20260504010304 | 56 | 21 | 1.0 | 4.0 | 0.00 | 0.00 | 0.00 | 74 | 1011.4 |
| 20260504010204 | 56 | 19 | 3.0 | 4.0 | 0.00 | 0.00 | 0.00 | 74 | 1011.2 |
| 20260504010116 | 56 | 24 | 1.0 | 4.0 | 0.00 | 0.00 | 0.00 | 74 | 1011.5 |
| 20260504010104 | 56 | 25 | 1.0 | 4.0 | 0.00 | 0.00 | 0.00 | 74 | 1011.5 |
| 20260504010014 | 56 | 30 | 2.0 | 4.0 | 0.00 | 0.00 | 0.00 | 74 | 1011.4 |
| 20260504010004 | 56 | 32 | 2.0 | 4.0 | 0.00 | 0.00 | 0.00 | 74 | 1011.4 |
| 20260504005918 | 56 | 37 | 2.0 | 4.0 | 0.00 | 0.00 | 0.00 | 74 | 1011.4 |
| 20260504005817 | 56 | 55 | 2.0 | 4.0 | 0.00 | 0.00 | 0.00 | 75 | 1011.3 |
| 20260504005504 | 56 | 64 | 2.0 | 4.0 | 0.00 | 0.00 | 0.00 | 75 | 1011.5 |
| 20260504005405 | 56 | 56 | 2.0 | 4.0 | 0.00 | 0.00 | 0.00 | 75 | 1011.3 |
| 20260504005305 | 56 | 40 | 2.0 | 4.0 | 0.00 | 0.00 | 0.00 | 75 | 1011.5 |
| 20260504005204 | 56 | 31 | 2.0 | 6.0 | 0.00 | 0.00 | 0.00 | 76 | 1011.6 |
| 20260504005104 | 56 | 42 | 2.0 | 6.0 | 0.00 | 0.00 | 0.00 | 75 | 1011.5 |
| 20260504005004 | 56 | 38 | 2.0 | 6.0 | 0.00 | 0.00 | 0.00 | 75 | 1011.3 |
| 20260504004903 | 56 | 37 | 2.0 | 6.0 | 0.00 | 0.00 | 0.00 | 75 | 1011.1 |
| 20260504004803 | 56 | 34 | 2.0 | 6.0 | 0.00 | 0.00 | 0.00 | 75 | 1011.6 |
| 20260504004703 | 56 | 42 | 4.0 | 6.0 | 0.00 | 0.00 | 0.00 | 75 | 1011.3 |
| 20260504004605 | 56 | 39 | 1.0 | 6.0 | 0.00 | 0.00 | 0.00 | 75 | 1011.5 |
| 20260504004503 | 56 | 41 | 4.0 | 6.0 | 0.00 | 0.00 | 0.00 | 75 | 1011.3 |
| 20260504004406 | 56 | 50 | 2.0 | 6.0 | 0.00 | 0.00 | 0.00 | 74 | 1011.6 |
| 20260504004316 | 56 | 57 | 3.0 | 6.0 | 0.00 | 0.00 | 0.00 | 74 | 1011.5 |
| 20260504004304 | 56 | 57 | 3.0 | 6.0 | 0.00 | 0.00 | 0.00 | 74 | 1011.3 |
| 20260504004203 | 56 | 55 | 2.0 | 6.0 | 0.00 | 0.00 | 0.00 | 74 | 1011.3 |
| 20260504004016 | 56 | 38 | 2.0 | 6.0 | 0.00 | 0.00 | 0.00 | 74 | 1011.4 |
| 20260504004005 | 56 | 35 | 2.0 | 6.0 | 0.00 | 0.00 | 0.00 | 74 | 1011.4 |
| 20260504003907 | 56 | 28 | 4.0 | 6.0 | 0.00 | 0.00 | 0.00 | 74 | 1011.3 |
| 20260504003819 | 56 | 21 | 2.0 | 6.0 | 0.00 | 0.00 | 0.00 | 74 | 1011.4 |
| 20260504003705 | 56 | 22 | 2.0 | 6.0 | 0.00 | 0.00 | 0.00 | 74 | 1011.4 |
| 20260504003503 | 56 | 43 | 2.0 | 6.0 | 0.00 | 0.00 | 0.00 | 74 | 1011.6 |
| 20260504003405 | 56 | 53 | 2.0 | 4.0 | 0.00 | 0.00 | 0.00 | 74 | 1011.4 |
| 20260504003305 | 56 | 56 | 1.0 | 4.0 | 0.00 | 0.00 | 0.00 | 74 | 1011.7 |
| 20260504003119 | 56 | 47 | 2.0 | 4.0 | 0.00 | 0.00 | 0.00 | 74 | 1011.5 |
| 20260504003104 | 57 | 42 | 2.0 | 4.0 | 0.00 | 0.00 | 0.00 | 74 | 1011.4 |
| 20260504003006 | 57 | 36 | 2.0 | 4.0 | 0.00 | 0.00 | 0.00 | 74 | 1011.6 |
| 20260504002804 | 57 | 22 | 4.0 | 4.0 | 0.00 | 0.00 | 0.00 | 74 | 1011.7 |
| 20260504002718 | 57 | 28 | 2.0 | 4.0 | 0.00 | 0.00 | 0.00 | 74 | 1011.6 |
| 20260504002704 | 57 | 30 | 1.0 | 4.0 | 0.00 | 0.00 | 0.00 | 74 | 1011.8 |
| 20260504002604 | 57 | 34 | 2.0 | 4.0 | 0.00 | 0.00 | 0.00 | 74 | 1011.7 |
| 20260504002404 | 57 | 49 | 2.0 | 4.0 | 0.00 | 0.00 | 0.00 | 74 | 1011.5 |
| 20260504002318 | 57 | 53 | 2.0 | 4.0 | 0.00 | 0.00 | 0.00 | 74 | 1011.7 |
| 20260504002304 | 57 | 56 | 1.0 | 4.0 | 0.00 | 0.00 | 0.00 | 74 | 1011.7 |
| 20260504002203 | 57 | 57 | 1.0 | 4.0 | 0.00 | 0.00 | 0.00 | 74 | 1011.7 |
| 20260504002018 | 57 | 57 | 2.0 | 4.0 | 0.00 | 0.00 | 0.00 | 74 | 1011.7 |
| 20260504002004 | 57 | 58 | 2.0 | 4.0 | 0.00 | 0.00 | 0.00 | 74 | 1011.7 |
| 20260504001904 | 57 | 59 | 2.0 | 4.0 | 0.00 | 0.00 | 0.00 | 73 | 1012.1 |
| 20260504001704 | 58 | 65 | 2.0 | 4.0 | 0.00 | 0.00 | 0.00 | 73 | 1011.7 |
| 20260504001606 | 58 | 72 | 2.0 | 4.0 | 0.00 | 0.00 | 0.00 | 73 | 1011.8 |
| 20260504001504 | 58 | 63 | 1.0 | 4.0 | 0.00 | 0.00 | 0.00 | 72 | 1011.7 |
| 20260504001405 | 58 | 57 | 1.0 | 4.0 | 0.00 | 0.00 | 0.00 | 72 | 1011.9 |
| 20260504001304 | 58 | 51 | 1.0 | 4.0 | 0.00 | 0.00 | 0.00 | 72 | 1011.9 |
| 20260504001217 | 58 | 46 | 1.0 | 4.0 | 0.00 | 0.00 | 0.00 | 72 | 1011.8 |
| 20260504001204 | 58 | 44 | 1.0 | 4.0 | 0.00 | 0.00 | 0.00 | 72 | 1011.8 |
| 20260504001103 | 58 | 29 | 1.0 | 4.0 | 0.00 | 0.00 | 0.00 | 73 | 1011.8 |
| 20260504000903 | 57 | 59 | 2.0 | 4.0 | 0.00 | 0.00 | 0.00 | 73 | 1011.9 |
| 20260504000803 | 57 | 67 | 0.0 | 2.0 | 0.00 | 0.00 | 0.00 | 73 | 1011.8 |
| 20260504000704 | 57 | 67 | 0.0 | 2.0 | 0.00 | 0.00 | 0.00 | 73 | 1011.9 |
| 20260504000604 | 57 | 67 | 0.0 | 2.0 | 0.00 | 0.00 | 0.00 | 73 | 1011.9 |
| 20260504000503 | 57 | 67 | 0.0 | 2.0 | 0.00 | 0.00 | 0.00 | 73 | 1011.8 |
| 20260504000404 | 57 | 67 | 1.0 | 2.0 | 0.00 | 0.00 | 0.00 | 73 | 1011.9 |
| 20260504000304 | 57 | 67 | 0.0 | 2.0 | 0.00 | 0.00 | 0.00 | 73 | 1012.0 |
| 20260504000204 | 57 | 67 | 0.0 | 2.0 | 0.00 | 0.00 | 0.00 | 72 | 1011.9 |
| 20260504000104 | 57 | 67 | 0.0 | 2.0 | 0.00 | 0.00 | 0.00 | 72 | 1011.8 |
| 20260503235903 | 57 | 67 | 0.0 | 2.0 | 0.00 | 0.00 | 0.00 | 72 | 1011.9 |
| 20260503235805 | 57 | 67 | 0.0 | 2.0 | 0.00 | 0.00 | 0.00 | 72 | 1011.8 |
| 20260503235704 | 58 | 67 | 0.0 | 2.0 | 0.00 | 0.00 | 0.00 | 72 | 1011.9 |
| 20260503235603 | 58 | 67 | 0.0 | 2.0 | 0.00 | 0.00 | 0.00 | 72 | 1012.0 |
| 20260503235504 | 58 | 67 | 1.0 | 2.0 | 0.00 | 0.00 | 0.00 | 72 | 1011.9 |
| 20260503235405 | 57 | 67 | 1.0 | 2.0 | 0.00 | 0.00 | 0.00 | 72 | 1012.0 |
| 20260503235305 | 57 | 67 | 1.0 | 2.0 | 0.00 | 0.00 | 0.00 | 72 | 1011.8 |
| 20260503235203 | 58 | 67 | 1.0 | 2.0 | 0.00 | 0.00 | 0.00 | 72 | 1011.9 |
| 20260503235103 | 58 | 67 | 1.0 | 2.0 | 0.00 | 0.00 | 0.00 | 72 | 1012.0 |
| 20260503235003 | 58 | 67 | 1.0 | 2.0 | 0.00 | 0.00 | 0.00 | 71 | 1012.0 |
| 20260503234905 | 58 | 67 | 0.0 | 2.0 | 0.00 | 0.00 | 0.00 | 71 | 1011.8 |
| 20260503234813 | 58 | 67 | 0.0 | 2.0 | 0.00 | 0.00 | 0.00 | 71 | 1012.2 |
| 20260503234704 | 58 | 67 | 0.0 | 2.0 | 0.00 | 0.00 | 0.00 | 71 | 1012.0 |
| 20260503234615 | 58 | 67 | 0.0 | 2.0 | 0.00 | 0.00 | 0.00 | 71 | 1012.1 |
| 20260503234503 | 58 | 67 | 0.0 | 2.0 | 0.00 | 0.00 | 0.00 | 71 | 1012.2 |
| 20260503234307 | 58 | 58 | 0.0 | 2.0 | 0.00 | 0.00 | 0.00 | 71 | 1012.4 |
| 20260503234204 | 58 | 57 | 1.0 | 2.0 | 0.00 | 0.00 | 0.00 | 71 | 1012.3 |
| 20260503234103 | 58 | 52 | 1.0 | 2.0 | 0.00 | 0.00 | 0.00 | 71 | 1012.1 |
| 20260503234004 | 58 | 46 | 1.0 | 2.0 | 0.00 | 0.00 | 0.00 | 71 | 1012.1 |
| 20260503233904 | 58 | 45 | 0.0 | 2.0 | 0.00 | 0.00 | 0.00 | 70 | 1012.2 |
| 20260503233805 | 58 | 45 | 0.0 | 2.0 | 0.00 | 0.00 | 0.00 | 70 | 1011.8 |
| 20260503233712 | 58 | 45 | 0.0 | 2.0 | 0.00 | 0.00 | 0.00 | 70 | 1012.1 |
| 20260503233504 | 58 | 45 | 0.0 | 2.0 | 0.00 | 0.00 | 0.00 | 70 | 1011.9 |
| 20260503233404 | 58 | 45 | 0.0 | 2.0 | 0.00 | 0.00 | 0.00 | 70 | 1011.6 |
| 20260503233305 | 58 | 42 | 1.0 | 2.0 | 0.00 | 0.00 | 0.00 | 69 | 1011.7 |
| 20260503233204 | 58 | 34 | 1.0 | 2.0 | 0.00 | 0.00 | 0.00 | 69 | 1011.9 |
| 20260503233104 | 58 | 33 | 0.0 | 2.0 | 0.00 | 0.00 | 0.00 | 69 | 1012.0 |
| 20260503233004 | 58 | 31 | 0.0 | 2.0 | 0.00 | 0.00 | 0.00 | 69 | 1011.8 |
| 20260503232904 | 58 | 34 | 0.0 | 2.0 | 0.00 | 0.00 | 0.00 | 69 | 1011.8 |
| 20260503232803 | 59 | 38 | 0.0 | 2.0 | 0.00 | 0.00 | 0.00 | 69 | 1011.6 |
| 20260503232604 | 59 | 44 | 0.0 | 2.0 | 0.00 | 0.00 | 0.00 | 68 | 1011.5 |
| 20260503232516 | 59 | 40 | 0.0 | 2.0 | 0.00 | 0.00 | 0.00 | 68 | 1011.6 |
| 20260503232504 | 59 | 39 | 0.0 | 2.0 | 0.00 | 0.00 | 0.00 | 68 | 1011.6 |
| 20260503232403 | 59 | 34 | 0.0 | 2.0 | 0.00 | 0.00 | 0.00 | 68 | 1011.6 |
| 20260503232203 | 59 | 27 | 1.0 | 2.0 | 0.00 | 0.00 | 0.00 | 68 | 1011.5 |
| 20260503232104 | 59 | 22 | 1.0 | 2.0 | 0.00 | 0.00 | 0.00 | 67 | 1011.5 |
| 20260503232005 | 59 | 22 | 1.0 | 2.0 | 0.00 | 0.00 | 0.00 | 67 | 1011.6 |
| 20260503231805 | 59 | 360 | 0.0 | 2.0 | 0.00 | 0.00 | 0.00 | 67 | 1011.4 |
| 20260503231704 | 59 | 360 | 0.0 | 2.0 | 0.00 | 0.00 | 0.00 | 67 | 1011.3 |
| 20260503231405 | 59 | 360 | 0.0 | 2.0 | 0.00 | 0.00 | 0.00 | 65 | 1011.2 |
| 20260503231304 | 59 | 360 | 1.0 | 4.0 | 0.00 | 0.00 | 0.00 | 65 | 1011.3 |
| 20260503231204 | 59 | 360 | 1.0 | 4.0 | 0.00 | 0.00 | 0.00 | 65 | 1011.3 |
| 20260503231116 | 59 | 5 | 1.0 | 4.0 | 0.00 | 0.00 | 0.00 | 65 | 1011.0 |
| 20260503231105 | 60 | 5 | 2.0 | 4.0 | 0.00 | 0.00 | 0.00 | 64 | 1011.5 |
| 20260503231008 | 60 | 5 | 0.0 | 4.0 | 0.00 | 0.00 | 0.00 | 64 | 1011.2 |
| 20260503230703 | 60 | 359 | 2.0 | 4.0 | 0.00 | 0.00 | 0.00 | 63 | 1011.2 |
| 20260503230603 | 60 | 355 | 2.0 | 6.0 | 0.00 | 0.00 | 0.00 | 63 | 1011.2 |
| 20260503230518 | 60 | 358 | 2.0 | 7.0 | 0.00 | 0.00 | 0.00 | 63 | 1011.0 |
| 20260503230505 | 60 | 360 | 2.0 | 7.0 | 0.00 | 0.00 | 0.00 | 63 | 1011.0 |
| 20260503230416 | 60 | 6 | 3.0 | 7.0 | 0.00 | 0.00 | 0.00 | 63 | 1011.1 |
| 20260503230404 | 60 | 9 | 3.0 | 7.0 | 0.00 | 0.00 | 0.00 | 63 | 1011.1 |
| 20260503230117 | 60 | 15 | 3.0 | 7.0 | 0.00 | 0.00 | 0.00 | 62 | 1011.0 |
| 20260503230104 | 60 | 17 | 3.0 | 7.0 | 0.00 | 0.00 | 0.00 | 62 | 1011.0 |
| 20260503230016 | 60 | 17 | 4.0 | 7.0 | 0.00 | 0.00 | 0.00 | 62 | 1010.9 |
| 20260503230006 | 60 | 15 | 4.0 | 7.0 | 0.00 | 0.00 | 0.00 | 62 | 1010.9 |
| 20260503225704 | 60 | 21 | 3.0 | 4.0 | 0.00 | 0.00 | 0.00 | 62 | 1011.1 |
| 20260503225605 | 60 | 20 | 2.0 | 4.0 | 0.00 | 0.00 | 0.00 | 62 | 1010.9 |
| 20260503225404 | 60 | 30 | 2.0 | 4.0 | 0.00 | 0.00 | 0.00 | 63 | 1011.0 |
| 20260503225316 | 60 | 26 | 2.0 | 4.0 | 0.00 | 0.00 | 0.00 | 63 | 1011.0 |
| 20260503225309 | 60 | 24 | 2.0 | 4.0 | 0.00 | 0.00 | 0.00 | 63 | 1011.0 |
| 20260503225204 | 60 | 23 | 2.0 | 4.0 | 0.00 | 0.00 | 0.00 | 63 | 1010.9 |
| 20260503225113 | 60 | 24 | 2.0 | 4.0 | 0.00 | 0.00 | 0.00 | 63 | 1010.8 |
| 20260503225004 | 60 | 22 | 1.0 | 4.0 | 0.00 | 0.00 | 0.00 | 63 | 1010.9 |
| 20260503224804 | 60 | 27 | 2.0 | 4.0 | 0.00 | 0.00 | 0.00 | 63 | 1010.9 |
| 20260503224717 | 60 | 33 | 3.0 | 4.0 | 0.00 | 0.00 | 0.00 | 63 | 1010.9 |
| 20260503224703 | 60 | 35 | 0.0 | 4.0 | 0.00 | 0.00 | 0.00 | 63 | 1011.2 |
| 20260503224604 | 60 | 37 | 1.0 | 4.0 | 0.00 | 0.00 | 0.00 | 63 | 1010.9 |
| 20260503224413 | 60 | 41 | 2.0 | 4.0 | 0.00 | 0.00 | 0.00 | 63 | 1010.8 |
| 20260503224303 | 61 | 35 | 2.0 | 4.0 | 0.00 | 0.00 | 0.00 | 63 | 1010.9 |
| 20260503224215 | 61 | 36 | 2.0 | 4.0 | 0.00 | 0.00 | 0.00 | 63 | 1011.1 |
| 20260503224107 | 61 | 29 | 2.0 | 4.0 | 0.00 | 0.00 | 0.00 | 63 | 1010.8 |
| 20260503223903 | 61 | 33 | 2.0 | 2.0 | 0.00 | 0.00 | 0.00 | 62 | 1011.2 |
| 20260503223804 | 61 | 37 | 2.0 | 2.0 | 0.00 | 0.00 | 0.00 | 61 | 1011.1 |
| 20260503223705 | 61 | 29 | 1.0 | 2.0 | 0.00 | 0.00 | 0.00 | 60 | 1011.0 |
| 20260503223516 | 61 | 18 | 2.0 | 4.0 | 0.00 | 0.00 | 0.00 | 60 | 1011.1 |
| 20260503223504 | 61 | 16 | 1.0 | 4.0 | 0.00 | 0.00 | 0.00 | 59 | 1011.1 |
| 20260503223405 | 61 | 18 | 1.0 | 4.0 | 0.00 | 0.00 | 0.00 | 59 | 1011.2 |
| 20260503223216 | 61 | 19 | 1.0 | 6.0 | 0.00 | 0.00 | 0.00 | 58 | 1011.3 |
| 20260503223203 | 61 | 18 | 1.0 | 6.0 | 0.00 | 0.00 | 0.00 | 58 | 1011.3 |
| 20260503223106 | 62 | 10 | 3.0 | 6.0 | 0.00 | 0.00 | 0.00 | 57 | 1011.2 |
| 20260503222903 | 62 | 4 | 3.0 | 6.0 | 0.00 | 0.00 | 0.00 | 57 | 1011.4 |
| 20260503222804 | 62 | 358 | 3.0 | 6.0 | 0.00 | 0.00 | 0.00 | 56 | 1011.3 |
| 20260503222704 | 62 | 360 | 2.0 | 4.0 | 0.00 | 0.00 | 0.00 | 56 | 1011.2 |
| 20260503222603 | 62 | 359 | 2.0 | 4.0 | 0.00 | 0.00 | 0.00 | 56 | 1011.3 |
| 20260503222506 | 62 | 358 | 2.0 | 4.0 | 0.00 | 0.00 | 0.00 | 56 | 1011.2 |
| 20260503222403 | 62 | 359 | 2.0 | 4.0 | 0.00 | 0.00 | 0.00 | 56 | 1011.5 |
| 20260503222305 | 62 | 358 | 3.0 | 4.0 | 0.00 | 0.00 | 0.00 | 56 | 1011.3 |
| 20260503222209 | 62 | 354 | 2.0 | 4.0 | 0.00 | 0.00 | 0.00 | 56 | 1011.2 |
| 20260503222105 | 62 | 355 | 2.0 | 4.0 | 0.00 | 0.00 | 0.00 | 56 | 1011.2 |
| 20260503222015 | 62 | 360 | 2.0 | 4.0 | 0.00 | 0.00 | 0.00 | 56 | 1011.5 |
| 20260503222003 | 62 | 1 | 2.0 | 4.0 | 0.00 | 0.00 | 0.00 | 56 | 1011.5 |
| 20260503221918 | 62 | 4 | 2.0 | 4.0 | 0.00 | 0.00 | 0.00 | 56 | 1011.4 |
| 20260503221903 | 62 | 6 | 1.0 | 4.0 | 0.00 | 0.00 | 0.00 | 56 | 1011.5 |
| 20260503221603 | 62 | 8 | 2.0 | 4.0 | 0.00 | 0.00 | 0.00 | 56 | 1011.5 |
| 20260503221523 | 62 | 6 | 2.0 | 4.0 | 0.00 | 0.00 | 0.00 | 56 | 1011.4 |
| 20260503221503 | 62 | 2 | 2.0 | 4.0 | 0.00 | 0.00 | 0.00 | 55 | 1011.4 |
| 20260503221403 | 62 | 357 | 2.0 | 4.0 | 0.00 | 0.00 | 0.00 | 55 | 1011.4 |
| 20260503221205 | 62 | 357 | 2.0 | 4.0 | 0.00 | 0.00 | 0.00 | 55 | 1011.3 |
| 20260503221103 | 62 | 356 | 2.0 | 4.0 | 0.00 | 0.00 | 0.00 | 55 | 1011.4 |
| 20260503221004 | 62 | 357 | 2.0 | 4.0 | 0.00 | 0.00 | 0.00 | 55 | 1011.4 |
| 20260503220905 | 62 | 10 | 2.0 | 4.0 | 0.00 | 0.00 | 0.00 | 55 | 1011.6 |
| 20260503220803 | 62 | 7 | 2.0 | 4.0 | 0.00 | 0.00 | 0.00 | 55 | 1011.6 |
| 20260503220706 | 62 | 4 | 2.0 | 4.0 | 0.00 | 0.00 | 0.00 | 54 | 1011.7 |
| 20260503220604 | 62 | 7 | 2.0 | 4.0 | 0.00 | 0.00 | 0.00 | 54 | 1011.5 |
| 20260503220505 | 62 | 8 | 2.0 | 4.0 | 0.00 | 0.00 | 0.00 | 54 | 1011.6 |
| 20260503220404 | 62 | 3 | 2.0 | 4.0 | 0.00 | 0.00 | 0.00 | 54 | 1011.7 |
| 20260503220304 | 62 | 6 | 2.0 | 4.0 | 0.00 | 0.00 | 0.00 | 54 | 1011.8 |
| 20260503220205 | 62 | 6 | 2.0 | 4.0 | 0.00 | 0.00 | 0.00 | 54 | 1011.8 |
| 20260503220118 | 62 | 2 | 3.0 | 6.0 | 0.00 | 0.00 | 0.00 | 54 | 1011.6 |
| 20260503220104 | 62 | 359 | 3.0 | 6.0 | 0.00 | 0.00 | 0.00 | 54 | 1011.6 |
| 20260503220004 | 62 | 355 | 2.0 | 6.0 | 0.00 | 0.00 | 0.00 | 54 | 1011.5 |
| 20260503215915 | 62 | 351 | 2.0 | 6.0 | 0.00 | 0.00 | 0.00 | 54 | 1011.6 |
| 20260503215804 | 62 | 346 | 2.0 | 6.0 | 0.00 | 0.00 | 0.00 | 54 | 1011.7 |
| 20260503215505 | 63 | 341 | 4.0 | 6.0 | 0.00 | 0.00 | 0.00 | 54 | 1011.6 |
| 20260503215404 | 63 | 342 | 4.0 | 6.0 | 0.00 | 0.00 | 0.00 | 54 | 1011.7 |
| 20260503215305 | 63 | 342 | 4.0 | 6.0 | 0.00 | 0.00 | 0.00 | 53 | 1011.7 |
| 20260503215207 | 63 | 342 | 3.0 | 6.0 | 0.00 | 0.00 | 0.00 | 53 | 1011.5 |
| 20260503215119 | 63 | 345 | 3.0 | 6.0 | 0.00 | 0.00 | 0.00 | 53 | 1011.5 |
| 20260503215103 | 63 | 346 | 3.0 | 6.0 | 0.00 | 0.00 | 0.00 | 53 | 1011.6 |
| 20260503215004 | 63 | 342 | 2.0 | 4.0 | 0.00 | 0.00 | 0.00 | 53 | 1011.5 |
| 20260503214803 | 63 | 352 | 2.0 | 4.0 | 0.00 | 0.00 | 0.00 | 53 | 1011.8 |
| 20260503214706 | 63 | 359 | 2.0 | 4.0 | 0.00 | 0.00 | 0.00 | 53 | 1011.6 |
| 20260503214604 | 63 | 359 | 2.0 | 4.0 | 0.00 | 0.00 | 0.00 | 53 | 1011.7 |
| 20260503214504 | 63 | 2 | 2.0 | 4.0 | 0.00 | 0.00 | 0.00 | 53 | 1011.6 |
| 20260503214406 | 63 | 1 | 1.0 | 4.0 | 0.00 | 0.00 | 0.00 | 53 | 1011.9 |
| 20260503214304 | 63 | 356 | 2.0 | 4.0 | 0.00 | 0.00 | 0.00 | 53 | 1011.8 |
| 20260503214205 | 63 | 354 | 2.0 | 6.0 | 0.00 | 0.00 | 0.00 | 53 | 1011.7 |
| 20260503214105 | 63 | 354 | 2.0 | 6.0 | 0.00 | 0.00 | 0.00 | 52 | 1011.6 |
| 20260503214003 | 63 | 351 | 2.0 | 6.0 | 0.00 | 0.00 | 0.00 | 52 | 1011.7 |